Wetterdaten: Mittwoch, 17.01.2018
Datum Zeit Temp. Aussen Temp. o. S. +5cm Feuchte Auss BlattFeu 1 Luftdruck Regen Sonnenschein Regendauer Solar Windben Empfang
17.01.2018 00:00 3,5 C 3,3 C 1,7 C 91 % 0 lf 992,3 hPa 0,0 l/m 0 min 0 min 0 W/m 24,8 km/h (4 Bft) 100,00 %
17.01.2018 00:02 3,6 C 3,3 C 1,7 C 91 % 0 lf 992,2 hPa 0,0 l/m 0 min 0 min 0 W/m 27,0 km/h (4 Bft) 92,31 %
17.01.2018 00:04 3,6 C 3,3 C 1,7 C 91 % 0 lf 992,2 hPa 0,0 l/m 0 min 0 min 0 W/m 20,3 km/h (4 Bft) 93,62 %
17.01.2018 00:07 3,6 C 3,3 C 1,7 C 91 % 5 lf 992,1 hPa 0,0 l/m 0 min 3 min 0 W/m 20,3 km/h (4 Bft) 93,62 %
17.01.2018 00:10 3,6 C 3,3 C 1,7 C 91 % 8 lf 992,1 hPa 0,0 l/m 0 min 3 min 0 W/m 31,5 km/h (5 Bft) 93,57 %
17.01.2018 00:12 3,6 C 3,3 C 1,7 C 91 % 7 lf 992,1 hPa 0,0 l/m 0 min 2 min 0 W/m 20,3 km/h (4 Bft) 95,74 %
17.01.2018 00:14 3,6 C 3,3 C 1,7 C 91 % 6 lf 992,1 hPa 0,0 l/m 0 min 2 min 0 W/m 20,3 km/h (4 Bft) 93,62 %
17.01.2018 00:16 3,6 C 3,3 C 1,7 C 91 % 4 lf 992,1 hPa 0,0 l/m 0 min 0 min 0 W/m 22,5 km/h (4 Bft) 95,74 %
17.01.2018 00:18 3,6 C 3,3 C 1,7 C 91 % 4 lf 992,0 hPa 0,0 l/m 0 min 0 min 0 W/m 22,5 km/h (4 Bft) 97,87 %
17.01.2018 00:20 3,6 C 3,3 C 1,7 C 91 % 3 lf 992,0 hPa 0,0 l/m 0 min 0 min 0 W/m 22,5 km/h (4 Bft) 95,65 %
17.01.2018 00:22 3,6 C 3,3 C 1,7 C 91 % 3 lf 992,0 hPa 0,0 l/m 0 min 0 min 0 W/m 20,3 km/h (4 Bft) 95,74 %
17.01.2018 00:24 3,6 C 3,3 C 1,7 C 91 % 2 lf 991,9 hPa 0,0 l/m 0 min 0 min 0 W/m 13,5 km/h (3 Bft) 95,74 %
17.01.2018 00:26 3,6 C 3,3 C 1,7 C 91 % 1 lf 992,0 hPa 0,0 l/m 0 min 0 min 0 W/m 20,3 km/h (4 Bft) 93,62 %
17.01.2018 00:28 3,6 C 3,3 C 1,7 C 91 % 1 lf 992,0 hPa 0,0 l/m 0 min 0 min 0 W/m 22,5 km/h (4 Bft) 91,49 %
17.01.2018 00:30 3,6 C 3,3 C 1,7 C 91 % 0 lf 992,0 hPa 0,0 l/m 0 min 0 min 0 W/m 18,0 km/h (3 Bft) 95,74 %
17.01.2018 00:32 3,6 C 3,3 C 1,7 C 91 % 0 lf 991,9 hPa 0,0 l/m 0 min 0 min 0 W/m 20,3 km/h (4 Bft) 95,65 %
17.01.2018 00:34 3,6 C 3,3 C 1,7 C 91 % 0 lf 991,8 hPa 0,0 l/m 0 min 0 min 0 W/m 24,8 km/h (4 Bft) 97,87 %
17.01.2018 00:36 3,6 C 3,3 C 1,7 C 91 % 0 lf 991,8 hPa 0,0 l/m 0 min 0 min 0 W/m 22,5 km/h (4 Bft) 95,74 %
17.01.2018 00:38 3,6 C 3,3 C 1,7 C 91 % 0 lf 991,8 hPa 0,0 l/m 0 min 0 min 0 W/m 18,0 km/h (3 Bft) 97,87 %
17.01.2018 00:40 3,6 C 3,3 C 1,7 C 91 % 0 lf 991,7 hPa 0,2 l/m 0 min 0 min 0 W/m 31,5 km/h (5 Bft) 97,87 %
17.01.2018 00:42 3,6 C 3,3 C 1,7 C 91 % 0 lf 991,7 hPa 0,0 l/m 0 min 0 min 0 W/m 18,0 km/h (3 Bft) 95,65 %
17.01.2018 00:44 3,6 C 3,3 C 2,2 C 91 % 1 lf 991,7 hPa 0,0 l/m 0 min 0 min 0 W/m 22,5 km/h (4 Bft) 97,87 %
17.01.2018 00:46 3,6 C 3,9 C 2,2 C 91 % 0 lf 991,7 hPa 0,0 l/m 0 min 0 min 0 W/m 20,3 km/h (4 Bft) 93,62 %
17.01.2018 00:48 3,6 C 3,3 C 2,2 C 91 % 1 lf 991,7 hPa 0,0 l/m 0 min 0 min 0 W/m 24,8 km/h (4 Bft) 95,74 %
17.01.2018 00:50 3,7 C 3,3 C 2,2 C 91 % 0 lf 991,6 hPa 0,0 l/m 0 min 0 min 0 W/m 22,5 km/h (4 Bft) 97,87 %
17.01.2018 00:52 3,7 C 3,3 C 2,2 C 91 % 0 lf 991,6 hPa 0,0 l/m 0 min 0 min 0 W/m 24,8 km/h (4 Bft) 95,74 %
17.01.2018 00:54 3,7 C 3,3 C 1,7 C 91 % 0 lf 991,6 hPa 0,0 l/m 0 min 0 min 0 W/m 20,3 km/h (4 Bft) 97,83 %
17.01.2018 00:56 3,7 C 3,3 C 2,2 C 91 % 0 lf 991,6 hPa 0,0 l/m 0 min 0 min 0 W/m 33,8 km/h (5 Bft) 93,62 %
17.01.2018 00:58 3,7 C 3,3 C 2,2 C 91 % 0 lf 991,7 hPa 0,0 l/m 0 min 0 min 0 W/m 24,8 km/h (4 Bft) 95,74 %
17.01.2018 01:00 3,7 C 3,3 C 2,2 C 91 % 0 lf 991,7 hPa 0,0 l/m 0 min 0 min 0 W/m 36,0 km/h (5 Bft) 95,74 %
17.01.2018 01:02 3,7 C 3,3 C 2,2 C 91 % 0 lf 991,7 hPa 0,0 l/m 0 min 0 min 0 W/m 33,8 km/h (5 Bft) 93,62 %
17.01.2018 01:04 3,7 C 3,9 C 2,2 C 91 % 0 lf 991,6 hPa 0,0 l/m 0 min 0 min 0 W/m 31,5 km/h (5 Bft) 95,74 %
17.01.2018 01:06 3,7 C 3,9 C 2,2 C 91 % 0 lf 991,5 hPa 0,0 l/m 0 min 0 min 0 W/m 33,8 km/h (5 Bft) 93,62 %
17.01.2018 01:08 3,7 C 3,9 C 2,2 C 91 % 0 lf 991,5 hPa 0,0 l/m 0 min 0 min 0 W/m 31,5 km/h (5 Bft) 95,74 %
17.01.2018 01:10 3,7 C 3,3 C 2,2 C 90 % 0 lf 991,5 hPa 0,0 l/m 0 min 0 min 0 W/m 29,3 km/h (5 Bft) 95,65 %
17.01.2018 01:12 3,7 C 3,3 C 2,2 C 90 % 0 lf 991,5 hPa 0,0 l/m 0 min 0 min 0 W/m 27,0 km/h (4 Bft) 89,36 %
17.01.2018 01:14 3,7 C 3,3 C 1,7 C 90 % 0 lf 991,5 hPa 0,0 l/m 0 min 0 min 0 W/m 24,8 km/h (4 Bft) 97,87 %
17.01.2018 01:16 3,7 C 3,3 C 2,2 C 90 % 0 lf 991,5 hPa 0,0 l/m 0 min 0 min 0 W/m 24,8 km/h (4 Bft) 93,62 %
17.01.2018 01:18 3,6 C 3,3 C 1,7 C 90 % 0 lf 991,4 hPa 0,0 l/m 0 min 0 min 0 W/m 22,5 km/h (4 Bft) 95,74 %
17.01.2018 01:20 3,6 C 3,3 C 1,7 C 90 % 0 lf 991,2 hPa 0,0 l/m 0 min 0 min 0 W/m 22,5 km/h (4 Bft) 95,74 %
17.01.2018 01:22 3,6 C 3,3 C 1,7 C 90 % 0 lf 991,2 hPa 0,0 l/m 0 min 0 min 0 W/m 11,3 km/h (2 Bft) 95,65 %
17.01.2018 01:24 3,6 C 3,3 C 1,7 C 90 % 0 lf 991,2 hPa 0,0 l/m 0 min 0 min 0 W/m 15,8 km/h (3 Bft) 95,74 %
17.01.2018 01:26 3,6 C 3,3 C 1,7 C 90 % 0 lf 991,1 hPa 0,0 l/m 0 min 0 min 0 W/m 22,5 km/h (4 Bft) 91,49 %
17.01.2018 01:28 3,6 C 3,3 C 1,7 C 90 % 0 lf 991,0 hPa 0,0 l/m 0 min 0 min 0 W/m 18,0 km/h (3 Bft) 95,74 %
17.01.2018 01:30 3,6 C 3,3 C 1,7 C 90 % 0 lf 991,0 hPa 0,0 l/m 0 min 0 min 0 W/m 15,8 km/h (3 Bft) 95,74 %
17.01.2018 01:32 3,5 C 3,3 C 1,7 C 90 % 0 lf 991,0 hPa 0,0 l/m 0 min 0 min 0 W/m 18,0 km/h (3 Bft) 87,23 %
17.01.2018 01:34 3,5 C 3,3 C 1,7 C 90 % 0 lf 991,1 hPa 0,0 l/m 0 min 0 min 0 W/m 20,3 km/h (4 Bft) 95,65 %
17.01.2018 01:36 3,5 C 3,3 C 1,7 C 91 % 0 lf 991,2 hPa 0,0 l/m 0 min 0 min 0 W/m 15,8 km/h (3 Bft) 93,62 %
17.01.2018 01:38 3,5 C 3,3 C 1,7 C 91 % 0 lf 991,3 hPa 0,0 l/m 0 min 0 min 0 W/m 22,5 km/h (4 Bft) 93,62 %
17.01.2018 01:40 3,5 C 3,3 C 1,7 C 91 % 0 lf 991,2 hPa 0,0 l/m 0 min 0 min 0 W/m 22,5 km/h (4 Bft) 93,62 %
17.01.2018 01:42 3,4 C 3,3 C 1,7 C 91 % 0 lf 991,2 hPa 0,0 l/m 0 min 0 min 0 W/m 24,8 km/h (4 Bft) 97,87 %
17.01.2018 01:44 3,5 C 3,3 C 2,2 C 91 % 0 lf 991,2 hPa 0,0 l/m 0 min 0 min 0 W/m 20,3 km/h (4 Bft) 95,74 %
17.01.2018 01:46 3,4 C 3,3 C 2,2 C 91 % 0 lf 991,1 hPa 0,0 l/m 0 min 0 min 0 W/m 24,8 km/h (4 Bft) 93,48 %
17.01.2018 01:48 3,5 C 3,3 C 2,2 C 91 % 0 lf 991,2 hPa 0,0 l/m 0 min 0 min 0 W/m 20,3 km/h (4 Bft) 97,87 %
17.01.2018 01:50 3,5 C 3,3 C 2,2 C 91 % 0 lf 991,2 hPa 0,0 l/m 0 min 0 min 0 W/m 20,3 km/h (4 Bft) 95,74 %
17.01.2018 01:52 3,5 C 3,3 C 2,2 C 91 % 0 lf 991,1 hPa 0,0 l/m 0 min 0 min 0 W/m 38,3 km/h (5 Bft) 95,74 %
17.01.2018 01:54 3,5 C 3,3 C 2,2 C 92 % 0 lf 991,2 hPa 0,0 l/m 0 min 0 min 0 W/m 29,3 km/h (5 Bft) 93,62 %
17.01.2018 01:56 3,5 C 3,3 C 2,2 C 92 % 0 lf 991,1 hPa 0,0 l/m 0 min 0 min 0 W/m 18,0 km/h (3 Bft) 95,65 %
17.01.2018 01:58 3,6 C 3,3 C 2,2 C 92 % 0 lf 991,3 hPa 0,0 l/m 0 min 0 min 0 W/m 31,5 km/h (5 Bft) 95,74 %
17.01.2018 02:00 3,6 C 3,3 C 1,7 C 92 % 15 lf 991,3 hPa 0,0 l/m 0 min 2 min 0 W/m 33,8 km/h (5 Bft) 95,74 %
17.01.2018 02:02 3,6 C 3,3 C 1,7 C 92 % 15 lf 991,2 hPa 0,2 l/m 0 min 2 min 0 W/m 22,5 km/h (4 Bft) 95,74 %
17.01.2018 02:04 3,6 C 2,8 C 1,7 C 92 % 15 lf 991,1 hPa 0,0 l/m 0 min 2 min 0 W/m 31,5 km/h (5 Bft) 95,74 %
17.01.2018 02:06 3,6 C 2,8 C 1,7 C 92 % 15 lf 991,2 hPa 0,0 l/m 0 min 2 min 0 W/m 36,0 km/h (5 Bft) 95,74 %
17.01.2018 02:08 3,6 C 2,8 C 1,7 C 92 % 15 lf 991,1 hPa 0,0 l/m 0 min 2 min 0 W/m 29,3 km/h (5 Bft) 95,65 %
17.01.2018 02:10 3,6 C 2,8 C 1,1 C 92 % 15 lf 991,0 hPa 0,0 l/m 0 min 0 min 0 W/m 31,5 km/h (5 Bft) 97,87 %
17.01.2018 02:12 3,5 C 2,8 C 1,1 C 92 % 15 lf 991,0 hPa 0,0 l/m 0 min 0 min 0 W/m 22,5 km/h (4 Bft) 95,74 %
17.01.2018 02:14 3,5 C 2,8 C 1,7 C 92 % 15 lf 990,9 hPa 0,0 l/m 0 min 0 min 0 W/m 36,0 km/h (5 Bft) 95,74 %
17.01.2018 02:16 3,5 C 2,8 C 1,7 C 92 % 15 lf 991,0 hPa 0,0 l/m 0 min 2 min 0 W/m 33,8 km/h (5 Bft) 97,87 %
17.01.2018 02:18 3,5 C 2,8 C 1,7 C 92 % 15 lf 991,1 hPa 0,0 l/m 0 min 2 min 0 W/m 18,0 km/h (3 Bft) 100,00 %
17.01.2018 02:20 3,4 C 2,8 C 1,7 C 92 % 15 lf 991,2 hPa 0,2 l/m 0 min 2 min 0 W/m 33,8 km/h (5 Bft) 97,83 %
17.01.2018 02:22 3,4 C 3,3 C 1,7 C 92 % 15 lf 991,1 hPa 0,0 l/m 0 min 2 min 0 W/m 40,6 km/h (6 Bft) 87,23 %
17.01.2018 02:24 3,4 C 2,8 C 1,7 C 92 % 15 lf 991,1 hPa 0,0 l/m 0 min 2 min 0 W/m 33,8 km/h (5 Bft) 97,87 %
17.01.2018 02:26 3,4 C 3,3 C 1,7 C 92 % 15 lf 991,1 hPa 0,0 l/m 0 min 2 min 0 W/m 45,1 km/h (6 Bft) 97,87 %
17.01.2018 02:28 3,4 C 3,3 C 1,7 C 92 % 15 lf 991,2 hPa 0,0 l/m 0 min 2 min 0 W/m 38,3 km/h (5 Bft) 100,00 %
17.01.2018 02:30 3,4 C 3,3 C 1,7 C 92 % 15 lf 991,2 hPa 0,0 l/m 0 min 2 min 0 W/m 40,6 km/h (6 Bft) 100,00 %
17.01.2018 02:32 3,4 C 3,3 C 1,7 C 92 % 15 lf 991,1 hPa 0,0 l/m 0 min 2 min 0 W/m 38,3 km/h (5 Bft) 97,83 %
17.01.2018 02:34 3,4 C 3,3 C 1,7 C 92 % 15 lf 991,3 hPa 0,0 l/m 0 min 2 min 0 W/m 40,6 km/h (6 Bft) 100,00 %
17.01.2018 02:36 3,4 C 3,3 C 1,7 C 92 % 15 lf 991,3 hPa 0,0 l/m 0 min 2 min 0 W/m 33,8 km/h (5 Bft) 100,00 %
17.01.2018 02:38 3,4 C 3,3 C 1,7 C 92 % 15 lf 991,2 hPa 0,0 l/m 0 min 2 min 0 W/m 36,0 km/h (5 Bft) 100,00 %
17.01.2018 02:40 3,4 C 3,3 C 1,7 C 92 % 15 lf 991,4 hPa 0,0 l/m 0 min 2 min 0 W/m 33,8 km/h (5 Bft) 100,00 %
17.01.2018 02:42 3,4 C 3,3 C 1,7 C 92 % 15 lf 991,4 hPa 0,0 l/m 0 min 0 min 0 W/m 38,3 km/h (5 Bft) 100,00 %
17.01.2018 02:44 3,4 C 3,3 C 1,7 C 92 % 15 lf 991,4 hPa 0,0 l/m 0 min 2 min 0 W/m 38,3 km/h (5 Bft) 100,00 %
17.01.2018 02:46 3,4 C 3,3 C 1,7 C 92 % 14 lf 991,5 hPa 0,0 l/m 0 min 0 min 0 W/m 42,8 km/h (6 Bft) 95,74 %
17.01.2018 02:48 3,4 C 3,3 C 1,7 C 92 % 13 lf 991,5 hPa 0,0 l/m 0 min 2 min 0 W/m 40,6 km/h (6 Bft) 100,00 %
17.01.2018 02:50 3,4 C 3,3 C 1,7 C 92 % 12 lf 991,3 hPa 0,0 l/m 0 min 2 min 0 W/m 36,0 km/h (5 Bft) 100,00 %
17.01.2018 02:52 3,4 C 3,3 C 1,7 C 92 % 11 lf 991,5 hPa 0,0 l/m 0 min 2 min 0 W/m 56,3 km/h (7 Bft) 97,87 %
17.01.2018 02:54 3,4 C 3,3 C 1,7 C 91 % 9 lf 991,5 hPa 0,0 l/m 0 min 2 min 0 W/m 47,3 km/h (6 Bft) 97,87 %
17.01.2018 02:56 3,4 C 3,3 C 1,7 C 91 % 7 lf 991,6 hPa 0,0 l/m 0 min 2 min 0 W/m 36,0 km/h (5 Bft) 100,00 %
17.01.2018 02:58 3,4 C 3,3 C 1,7 C 91 % 4 lf 991,9 hPa 0,0 l/m 0 min 0 min 0 W/m 29,3 km/h (5 Bft) 97,87 %
17.01.2018 03:00 3,4 C 3,3 C 1,7 C 91 % 13 lf 991,8 hPa 0,0 l/m 0 min 0 min 0 W/m 31,5 km/h (5 Bft) 95,74 %
17.01.2018 03:02 3,4 C 2,8 C 0,6 C 91 % 15 lf 991,7 hPa 0,0 l/m 0 min 2 min 0 W/m 27,0 km/h (4 Bft) 100,00 %
17.01.2018 03:04 3,3 C 2,2 C 0,6 C 91 % 15 lf 991,7 hPa 0,0 l/m 0 min 2 min 0 W/m 31,5 km/h (5 Bft) 100,00 %
17.01.2018 03:06 3,2 C 2,2 C 0,6 C 91 % 15 lf 991,6 hPa 0,0 l/m 0 min 2 min 0 W/m 22,5 km/h (4 Bft) 95,65 %
17.01.2018 03:08 3,1 C 2,2 C 0,0 C 90 % 15 lf 991,6 hPa 0,0 l/m 0 min 2 min 0 W/m 13,5 km/h (3 Bft) 95,74 %
17.01.2018 03:10 3,0 C 2,2 C 0,0 C 90 % 15 lf 991,6 hPa 0,0 l/m 0 min 2 min 0 W/m 11,3 km/h (2 Bft) 95,74 %
17.01.2018 03:12 2,9 C 2,2 C -0,6 C 90 % 15 lf 991,7 hPa 0,0 l/m 0 min 2 min 0 W/m 15,8 km/h (3 Bft) 97,87 %
17.01.2018 03:14 2,9 C 2,2 C -1,1 C 90 % 15 lf 991,7 hPa 0,0 l/m 0 min 2 min 0 W/m 20,3 km/h (4 Bft) 93,62 %
17.01.2018 03:16 2,8 C 1,7 C -0,6 C 90 % 15 lf 991,7 hPa 0,0 l/m 0 min 2 min 0 W/m 27,0 km/h (4 Bft) 95,74 %
17.01.2018 03:18 2,8 C 2,2 C -0,6 C 90 % 15 lf 991,9 hPa 0,0 l/m 0 min 2 min 0 W/m 24,8 km/h (4 Bft) 97,83 %
17.01.2018 03:20 2,7 C 2,2 C 0,0 C 90 % 15 lf 991,9 hPa 0,0 l/m 0 min 2 min 0 W/m 33,8 km/h (5 Bft) 97,87 %
17.01.2018 03:22 2,7 C 2,2 C 0,0 C 90 % 15 lf 991,9 hPa 0,0 l/m 0 min 2 min 0 W/m 20,3 km/h (4 Bft) 95,74 %
17.01.2018 03:24 2,7 C 2,2 C 0,6 C 90 % 15 lf 991,9 hPa 0,0 l/m 0 min 2 min 0 W/m 27,0 km/h (4 Bft) 97,87 %
17.01.2018 03:26 2,7 C 2,2 C 0,6 C 91 % 15 lf 991,8 hPa 0,0 l/m 0 min 2 min 0 W/m 38,3 km/h (5 Bft) 95,74 %
17.01.2018 03:28 2,8 C 2,2 C 0,6 C 91 % 15 lf 991,9 hPa 0,0 l/m 0 min 2 min 0 W/m 38,3 km/h (5 Bft) 95,74 %
17.01.2018 03:30 2,7 C 2,2 C 0,6 C 91 % 15 lf 991,9 hPa 0,0 l/m 0 min 2 min 0 W/m 22,5 km/h (4 Bft) 95,65 %
17.01.2018 03:32 2,7 C 2,2 C 0,6 C 91 % 15 lf 991,9 hPa 0,0 l/m 0 min 2 min 0 W/m 24,8 km/h (4 Bft) 89,36 %
17.01.2018 03:34 2,8 C 2,2 C 0,6 C 92 % 15 lf 992,0 hPa 0,0 l/m 0 min 2 min 0 W/m 24,8 km/h (4 Bft) 95,74 %
17.01.2018 03:36 2,8 C 2,2 C 0,6 C 92 % 15 lf 992,0 hPa 0,2 l/m 0 min 2 min 0 W/m 13,5 km/h (3 Bft) 93,62 %
17.01.2018 03:38 2,8 C 2,2 C 0,6 C 92 % 15 lf 991,9 hPa 0,0 l/m 0 min 2 min 0 W/m 22,5 km/h (4 Bft) 91,49 %
17.01.2018 03:40 2,7 C 2,2 C 0,6 C 92 % 15 lf 992,1 hPa 0,0 l/m 0 min 2 min 0 W/m 18,0 km/h (3 Bft) 91,30 %
17.01.2018 03:42 2,8 C 2,2 C 0,6 C 92 % 15 lf 992,3 hPa 0,0 l/m 0 min 2 min 0 W/m 22,5 km/h (4 Bft) 93,48 %
17.01.2018 03:44 2,7 C 1,7 C -0,6 C 92 % 15 lf 992,1 hPa 0,0 l/m 0 min 2 min 0 W/m 13,5 km/h (3 Bft) 93,62 %
17.01.2018 03:46 2,7 C 1,7 C -0,6 C 92 % 15 lf 992,2 hPa 0,0 l/m 0 min 2 min 0 W/m 18,0 km/h (3 Bft) 93,62 %
17.01.2018 03:48 2,6 C 1,7 C -0,6 C 92 % 15 lf 992,2 hPa 0,0 l/m 0 min 2 min 0 W/m 27,0 km/h (4 Bft) 89,36 %
17.01.2018 03:50 2,6 C 1,1 C -0,6 C 92 % 15 lf 992,3 hPa 0,0 l/m 0 min 2 min 0 W/m 33,8 km/h (5 Bft) 93,62 %
17.01.2018 03:52 2,4 C 1,1 C -0,6 C 92 % 15 lf 992,2 hPa 0,0 l/m 0 min 2 min 0 W/m 24,8 km/h (4 Bft) 93,62 %
17.01.2018 03:54 2,3 C 1,1 C -0,6 C 92 % 15 lf 992,1 hPa 0,0 l/m 0 min 2 min 0 W/m 36,0 km/h (5 Bft) 93,48 %
17.01.2018 03:56 2,2 C 1,1 C -1,1 C 92 % 15 lf 992,1 hPa 0,0 l/m 0 min 2 min 0 W/m 22,5 km/h (4 Bft) 89,36 %
17.01.2018 03:58 2,2 C 1,1 C -0,6 C 92 % 15 lf 992,1 hPa 0,0 l/m 0 min 2 min 0 W/m 31,5 km/h (5 Bft) 91,49 %
17.01.2018 04:00 2,1 C 1,1 C -0,6 C 92 % 15 lf 992,2 hPa 0,0 l/m 0 min 2 min 0 W/m 29,3 km/h (5 Bft) 97,87 %
17.01.2018 04:05 1,9 C 1,1 C -0,6 C 92 % 15 lf 991,9 hPa 0,0 l/m 0 min 5 min 0 W/m 22,5 km/h (4 Bft) 96,88 %
17.01.2018 04:06 1,9 C 1,1 C -0,6 C 92 % 15 lf 991,9 hPa 0,0 l/m 0 min 1 min 0 W/m 31,5 km/h (5 Bft) 95,65 %
17.01.2018 04:08 1,9 C 1,1 C -0,6 C 92 % 15 lf 992,0 hPa 0,0 l/m 0 min 2 min 0 W/m 24,8 km/h (4 Bft) 97,87 %
17.01.2018 04:10 1,9 C 1,1 C -0,6 C 92 % 15 lf 992,1 hPa 0,0 l/m 0 min 2 min 0 W/m 15,8 km/h (3 Bft) 93,62 %
17.01.2018 04:12 1,8 C 1,1 C -0,6 C 92 % 15 lf 992,4 hPa 0,0 l/m 0 min 2 min 0 W/m 31,5 km/h (5 Bft) 95,74 %
17.01.2018 04:14 1,8 C 0,6 C -1,1 C 92 % 15 lf 992,2 hPa 0,0 l/m 0 min 2 min 0 W/m 33,8 km/h (5 Bft) 97,87 %
17.01.2018 04:16 1,8 C 1,1 C -0,6 C 92 % 15 lf 992,2 hPa 0,0 l/m 0 min 2 min 0 W/m 29,3 km/h (5 Bft) 100,00 %
17.01.2018 04:18 1,7 C 1,1 C -0,6 C 92 % 15 lf 992,3 hPa 0,0 l/m 0 min 2 min 0 W/m 29,3 km/h (5 Bft) 97,87 %
17.01.2018 04:20 1,7 C 1,1 C -0,6 C 92 % 15 lf 992,2 hPa 0,0 l/m 0 min 0 min 0 W/m 38,3 km/h (5 Bft) 97,87 %
17.01.2018 04:22 1,7 C 1,1 C -0,6 C 92 % 15 lf 992,2 hPa 0,0 l/m 0 min 0 min 0 W/m 24,8 km/h (4 Bft) 100,00 %
17.01.2018 04:24 1,6 C 1,1 C -0,6 C 92 % 15 lf 992,2 hPa 0,0 l/m 0 min 0 min 0 W/m 31,5 km/h (5 Bft) 100,00 %
17.01.2018 04:26 1,6 C 1,1 C -0,6 C 93 % 15 lf 992,3 hPa 0,0 l/m 0 min 2 min 0 W/m 27,0 km/h (4 Bft) 97,87 %
17.01.2018 04:28 1,6 C 1,1 C -0,6 C 93 % 15 lf 992,3 hPa 0,0 l/m 0 min 0 min 0 W/m 27,0 km/h (4 Bft) 97,83 %
17.01.2018 04:30 1,6 C 1,1 C -0,6 C 93 % 15 lf 992,3 hPa 0,0 l/m 0 min 0 min 0 W/m 20,3 km/h (4 Bft) 97,87 %
17.01.2018 04:32 1,6 C 1,1 C -0,6 C 93 % 15 lf 992,4 hPa 0,0 l/m 0 min 2 min 0 W/m 33,8 km/h (5 Bft) 100,00 %
17.01.2018 04:34 1,6 C 1,1 C -0,6 C 93 % 15 lf 992,4 hPa 0,0 l/m 0 min 2 min 0 W/m 15,8 km/h (3 Bft) 100,00 %
17.01.2018 04:36 1,6 C 1,1 C 0,0 C 93 % 15 lf 992,5 hPa 0,0 l/m 0 min 0 min 0 W/m 24,8 km/h (4 Bft) 100,00 %
17.01.2018 04:38 1,6 C 1,1 C 0,0 C 93 % 15 lf 992,7 hPa 0,0 l/m 0 min 0 min 0 W/m 36,0 km/h (5 Bft) 100,00 %
17.01.2018 04:40 1,7 C 1,1 C 0,0 C 93 % 15 lf 992,6 hPa 0,0 l/m 0 min 0 min 0 W/m 29,3 km/h (5 Bft) 100,00 %
17.01.2018 04:42 1,7 C 1,1 C 0,0 C 93 % 15 lf 992,6 hPa 0,0 l/m 0 min 0 min 0 W/m 29,3 km/h (5 Bft) 100,00 %
17.01.2018 04:44 1,7 C 1,1 C 0,0 C 93 % 15 lf 992,7 hPa 0,0 l/m 0 min 0 min 0 W/m 38,3 km/h (5 Bft) 97,87 %
17.01.2018 04:46 1,7 C 1,1 C 0,0 C 93 % 15 lf 992,7 hPa 0,0 l/m 0 min 0 min 0 W/m 36,0 km/h (5 Bft) 100,00 %
17.01.2018 04:48 1,7 C 1,1 C 0,0 C 93 % 15 lf 992,7 hPa 0,0 l/m 0 min 0 min 0 W/m 31,5 km/h (5 Bft) 97,87 %
17.01.2018 04:50 1,7 C 1,1 C 0,0 C 93 % 15 lf 992,7 hPa 0,0 l/m 0 min 0 min 0 W/m 22,5 km/h (4 Bft) 100,00 %
17.01.2018 04:52 1,7 C 1,1 C 0,0 C 93 % 15 lf 992,7 hPa 0,0 l/m 0 min 2 min 0 W/m 29,3 km/h (5 Bft) 97,83 %
17.01.2018 04:54 1,7 C 1,1 C 0,0 C 93 % 15 lf 992,8 hPa 0,0 l/m 0 min 2 min 0 W/m 24,8 km/h (4 Bft) 97,87 %
17.01.2018 04:56 1,7 C 1,1 C 0,0 C 93 % 15 lf 992,8 hPa 0,0 l/m 0 min 2 min 0 W/m 29,3 km/h (5 Bft) 97,87 %
17.01.2018 04:58 1,7 C 1,1 C 0,0 C 93 % 15 lf 992,9 hPa 0,0 l/m 0 min 2 min 0 W/m 24,8 km/h (4 Bft) 100,00 %
17.01.2018 05:00 1,7 C 1,1 C 0,0 C 93 % 15 lf 992,8 hPa 0,0 l/m 0 min 2 min 0 W/m 18,0 km/h (3 Bft) 100,00 %
17.01.2018 05:02 1,7 C 1,1 C 0,0 C 93 % 15 lf 992,8 hPa 0,0 l/m 0 min 2 min 0 W/m 24,8 km/h (4 Bft) 93,62 %
17.01.2018 05:04 1,7 C 1,1 C 0,0 C 93 % 15 lf 992,8 hPa 0,0 l/m 0 min 0 min 0 W/m 22,5 km/h (4 Bft) 95,65 %
17.01.2018 05:06 1,7 C 1,1 C 0,0 C 94 % 15 lf 992,8 hPa 0,0 l/m 0 min 0 min 0 W/m 29,3 km/h (5 Bft) 100,00 %
17.01.2018 05:08 1,7 C 1,1 C 0,0 C 94 % 15 lf 992,8 hPa 0,2 l/m 0 min 0 min 0 W/m 27,0 km/h (4 Bft) 100,00 %
17.01.2018 05:10 1,7 C 1,1 C 0,0 C 94 % 15 lf 993,0 hPa 0,0 l/m 0 min 0 min 0 W/m 22,5 km/h (4 Bft) 100,00 %
17.01.2018 05:12 1,7 C 1,1 C 0,0 C 94 % 15 lf 993,1 hPa 0,0 l/m 0 min 2 min 0 W/m 24,8 km/h (4 Bft) 97,87 %
17.01.2018 05:14 1,7 C 1,1 C 0,0 C 94 % 15 lf 993,1 hPa 0,0 l/m 0 min 2 min 0 W/m 24,8 km/h (4 Bft) 100,00 %
17.01.2018 05:16 1,6 C 1,1 C 0,0 C 94 % 15 lf 993,2 hPa 0,0 l/m 0 min 0 min 0 W/m 27,0 km/h (4 Bft) 100,00 %
17.01.2018 05:18 1,6 C 1,1 C 0,0 C 94 % 15 lf 993,2 hPa 0,0 l/m 0 min 2 min 0 W/m 33,8 km/h (5 Bft) 97,87 %
17.01.2018 05:20 1,6 C 1,1 C 0,0 C 94 % 15 lf 993,3 hPa 0,0 l/m 0 min 2 min 0 W/m 36,0 km/h (5 Bft) 95,74 %
17.01.2018 05:22 1,6 C 1,1 C 0,0 C 94 % 15 lf 993,3 hPa 0,0 l/m 0 min 2 min 0 W/m 47,3 km/h (6 Bft) 95,74 %
17.01.2018 05:24 1,6 C 1,1 C -0,6 C 93 % 15 lf 993,4 hPa 0,0 l/m 0 min 2 min 0 W/m 40,6 km/h (6 Bft) 97,87 %
17.01.2018 05:26 1,6 C 0,6 C -0,6 C 93 % 15 lf 993,3 hPa 0,0 l/m 0 min 2 min 0 W/m 38,3 km/h (5 Bft) 97,83 %
17.01.2018 05:28 1,5 C 0,6 C -0,6 C 93 % 15 lf 993,4 hPa 0,0 l/m 0 min 2 min 0 W/m 33,8 km/h (5 Bft) 95,74 %
17.01.2018 05:30 1,4 C 0,6 C -0,6 C 93 % 15 lf 993,4 hPa 0,2 l/m 0 min 2 min 0 W/m 36,0 km/h (5 Bft) 95,74 %
17.01.2018 05:32 1,4 C 0,6 C -0,6 C 93 % 15 lf 993,5 hPa 0,0 l/m 0 min 2 min 0 W/m 36,0 km/h (5 Bft) 93,62 %
17.01.2018 05:34 1,3 C 0,6 C -0,6 C 93 % 15 lf 993,5 hPa 0,0 l/m 0 min 2 min 0 W/m 38,3 km/h (5 Bft) 89,36 %
17.01.2018 05:35 1,3 C 0,6 C -0,6 C 93 % 15 lf 993,5 hPa 0,0 l/m 0 min 1 min 0 W/m 38,3 km/h (5 Bft) 92,98 %
17.01.2018 05:40 1,1 C 0,6 C -0,6 C 93 % 15 lf 993,5 hPa 0,0 l/m 0 min 5 min 0 W/m 36,0 km/h (5 Bft) 100,00 %
17.01.2018 05:42 1,1 C 0,6 C -0,6 C 93 % 15 lf 993,6 hPa 0,0 l/m 0 min 2 min 0 W/m 38,3 km/h (5 Bft) 95,74 %
17.01.2018 05:44 1,0 C 0,0 C -1,1 C 93 % 15 lf 993,7 hPa 0,0 l/m 0 min 2 min 0 W/m 29,3 km/h (5 Bft) 95,74 %
17.01.2018 05:46 0,9 C 0,0 C -0,6 C 93 % 15 lf 993,8 hPa 0,0 l/m 0 min 2 min 0 W/m 22,5 km/h (4 Bft) 95,74 %
17.01.2018 05:48 0,9 C 0,0 C -1,1 C 94 % 15 lf 993,8 hPa 0,2 l/m 0 min 2 min 0 W/m 31,5 km/h (5 Bft) 95,65 %
17.01.2018 05:50 0,9 C 0,0 C -1,1 C 94 % 15 lf 993,6 hPa 0,0 l/m 0 min 2 min 0 W/m 27,0 km/h (4 Bft) 94,92 %
17.01.2018 05:52 0,8 C 0,0 C -1,1 C 94 % 15 lf 993,6 hPa 0,0 l/m 0 min 2 min 0 W/m 24,8 km/h (4 Bft) 93,02 %
17.01.2018 05:54 0,8 C 0,0 C -1,1 C 94 % 15 lf 993,7 hPa 0,0 l/m 0 min 2 min 0 W/m 22,5 km/h (4 Bft) 95,74 %
17.01.2018 05:56 0,8 C 0,0 C -1,1 C 94 % 15 lf 993,7 hPa 0,0 l/m 0 min 0 min 0 W/m 20,3 km/h (4 Bft) 93,62 %
17.01.2018 05:58 0,8 C 0,0 C -1,1 C 94 % 15 lf 993,8 hPa 0,0 l/m 0 min 0 min 0 W/m 22,5 km/h (4 Bft) 93,62 %
17.01.2018 06:00 0,8 C 0,0 C -1,1 C 94 % 15 lf 993,8 hPa 0,0 l/m 0 min 0 min 0 W/m 31,5 km/h (5 Bft) 95,74 %
17.01.2018 06:02 0,8 C 0,6 C -0,6 C 94 % 15 lf 993,9 hPa 0,0 l/m 0 min 2 min 0 W/m 24,8 km/h (4 Bft) 93,62 %
17.01.2018 06:04 0,8 C 0,6 C -0,6 C 94 % 15 lf 994,1 hPa 0,0 l/m 0 min 2 min 0 W/m 27,0 km/h (4 Bft) 95,65 %
17.01.2018 06:06 0,8 C 0,6 C -0,6 C 94 % 15 lf 994,0 hPa 0,0 l/m 0 min 2 min 0 W/m 22,5 km/h (4 Bft) 96,00 %
17.01.2018 06:08 0,8 C 0,6 C -0,6 C 94 % 15 lf 994,1 hPa 0,0 l/m 0 min 2 min 0 W/m 31,5 km/h (5 Bft) 95,74 %
17.01.2018 06:10 0,8 C 0,6 C -0,6 C 95 % 15 lf 994,0 hPa 0,0 l/m 0 min 0 min 0 W/m 20,3 km/h (4 Bft) 95,74 %
17.01.2018 06:12 0,8 C 0,6 C -0,6 C 95 % 15 lf 994,1 hPa 0,0 l/m 0 min 2 min 0 W/m 29,3 km/h (5 Bft) 95,74 %
17.01.2018 06:14 0,8 C 0,6 C -0,6 C 95 % 15 lf 994,2 hPa 0,0 l/m 0 min 2 min 0 W/m 20,3 km/h (4 Bft) 93,62 %
17.01.2018 06:16 0,8 C 0,6 C -0,6 C 95 % 15 lf 994,2 hPa 0,2 l/m 0 min 0 min 0 W/m 38,3 km/h (5 Bft) 93,48 %
17.01.2018 06:18 0,8 C 0,6 C -0,6 C 95 % 15 lf 994,3 hPa 0,0 l/m 0 min 0 min 0 W/m 36,0 km/h (5 Bft) 91,49 %
17.01.2018 06:20 0,8 C 0,6 C -0,6 C 95 % 15 lf 994,3 hPa 0,0 l/m 0 min 2 min 0 W/m 24,8 km/h (4 Bft) 93,62 %
17.01.2018 06:22 0,8 C 0,6 C -0,6 C 95 % 15 lf 994,4 hPa 0,0 l/m 0 min 2 min 0 W/m 45,1 km/h (6 Bft) 93,62 %
17.01.2018 06:24 0,9 C 0,6 C -0,6 C 95 % 15 lf 994,4 hPa 0,0 l/m 0 min 2 min 0 W/m 40,6 km/h (6 Bft) 91,49 %
17.01.2018 06:26 0,9 C 0,6 C -0,6 C 95 % 15 lf 994,4 hPa 0,0 l/m 0 min 2 min 0 W/m 24,8 km/h (4 Bft) 93,48 %
17.01.2018 06:28 0,9 C 0,6 C -0,6 C 95 % 15 lf 994,4 hPa 0,0 l/m 0 min 0 min 0 W/m 31,5 km/h (5 Bft) 91,49 %
17.01.2018 06:30 0,9 C 0,6 C -0,6 C 95 % 15 lf 994,5 hPa 0,0 l/m 0 min 0 min 0 W/m 31,5 km/h (5 Bft) 95,74 %
17.01.2018 06:32 0,9 C 0,6 C -0,6 C 95 % 15 lf 994,5 hPa 0,0 l/m 0 min 2 min 0 W/m 36,0 km/h (5 Bft) 93,62 %
17.01.2018 06:34 0,9 C 0,6 C -0,6 C 95 % 15 lf 994,5 hPa 0,0 l/m 0 min 0 min 0 W/m 40,6 km/h (6 Bft) 93,62 %
17.01.2018 06:36 0,9 C 0,6 C -0,6 C 95 % 15 lf 994,5 hPa 0,0 l/m 0 min 0 min 0 W/m 29,3 km/h (5 Bft) 95,74 %
17.01.2018 06:38 0,9 C 0,6 C -0,6 C 95 % 15 lf 994,6 hPa 0,0 l/m 0 min 0 min 0 W/m 31,5 km/h (5 Bft) 95,65 %
17.01.2018 06:40 0,9 C 0,6 C -0,6 C 95 % 15 lf 994,5 hPa 0,0 l/m 0 min 0 min 0 W/m 29,3 km/h (5 Bft) 97,87 %
17.01.2018 06:42 0,9 C 0,6 C -0,6 C 95 % 15 lf 994,5 hPa 0,0 l/m 0 min 0 min 0 W/m 38,3 km/h (5 Bft) 95,74 %
17.01.2018 06:44 0,9 C 0,6 C -0,6 C 95 % 15 lf 994,5 hPa 0,0 l/m 0 min 2 min 0 W/m 31,5 km/h (5 Bft) 93,62 %
17.01.2018 06:46 0,9 C 0,6 C -0,6 C 95 % 15 lf 994,6 hPa 0,2 l/m 0 min 0 min 0 W/m 33,8 km/h (5 Bft) 97,87 %
17.01.2018 06:48 0,9 C 0,6 C -0,6 C 95 % 15 lf 994,7 hPa 0,0 l/m 0 min 0 min 0 W/m 31,5 km/h (5 Bft) 95,74 %
17.01.2018 06:50 0,9 C 0,6 C -0,6 C 95 % 15 lf 994,7 hPa 0,0 l/m 0 min 0 min 0 W/m 33,8 km/h (5 Bft) 97,83 %
17.01.2018 06:52 0,9 C 0,6 C -0,6 C 95 % 15 lf 994,7 hPa 0,0 l/m 0 min 0 min 0 W/m 33,8 km/h (5 Bft) 95,83 %
17.01.2018 06:54 0,9 C 0,6 C -0,6 C 95 % 15 lf 994,7 hPa 0,0 l/m 0 min 0 min 0 W/m 22,5 km/h (4 Bft) 95,65 %
17.01.2018 06:56 0,9 C 0,6 C -0,6 C 95 % 15 lf 994,7 hPa 0,0 l/m 0 min 0 min 0 W/m 31,5 km/h (5 Bft) 97,87 %
17.01.2018 06:58 0,9 C 0,6 C -0,6 C 95 % 15 lf 994,8 hPa 0,0 l/m 0 min 2 min 0 W/m 31,5 km/h (5 Bft) 97,87 %
17.01.2018 07:00 0,9 C 0,6 C -0,6 C 95 % 15 lf 994,7 hPa 0,0 l/m 0 min 0 min 0 W/m 29,3 km/h (5 Bft) 97,87 %
17.01.2018 07:02 0,9 C 0,6 C -0,6 C 95 % 15 lf 994,8 hPa 0,0 l/m 0 min 0 min 0 W/m 27,0 km/h (4 Bft) 97,87 %
17.01.2018 07:04 0,9 C 0,6 C -0,6 C 95 % 15 lf 994,8 hPa 0,0 l/m 0 min 0 min 0 W/m 36,0 km/h (5 Bft) 97,87 %
17.01.2018 07:06 0,9 C 0,6 C -0,6 C 95 % 15 lf 994,9 hPa 0,0 l/m 0 min 0 min 0 W/m 27,0 km/h (4 Bft) 97,83 %
17.01.2018 07:08 0,9 C 0,6 C -1,1 C 95 % 15 lf 995,0 hPa 0,0 l/m 0 min 0 min 0 W/m 27,0 km/h (4 Bft) 100,00 %
17.01.2018 07:10 0,9 C 0,6 C -1,1 C 95 % 15 lf 995,0 hPa 0,0 l/m 0 min 0 min 0 W/m 20,3 km/h (4 Bft) 95,74 %
17.01.2018 07:12 0,9 C 0,6 C -1,1 C 95 % 15 lf 995,1 hPa 0,0 l/m 0 min 2 min 0 W/m 27,0 km/h (4 Bft) 97,87 %
17.01.2018 07:14 0,9 C 0,6 C -1,1 C 95 % 15 lf 995,1 hPa 0,0 l/m 0 min 2 min 0 W/m 22,5 km/h (4 Bft) 100,00 %
17.01.2018 07:16 0,9 C 0,6 C -1,1 C 95 % 15 lf 995,2 hPa 0,0 l/m 0 min 2 min 0 W/m 13,5 km/h (3 Bft) 97,87 %
17.01.2018 07:18 0,9 C 0,0 C -1,1 C 95 % 15 lf 995,2 hPa 0,0 l/m 0 min 0 min 0 W/m 22,5 km/h (4 Bft) 97,83 %
17.01.2018 07:20 0,9 C 0,0 C -1,1 C 95 % 15 lf 995,3 hPa 0,0 l/m 0 min 0 min 0 W/m 22,5 km/h (4 Bft) 97,87 %
17.01.2018 07:22 0,9 C 0,6 C -0,6 C 95 % 15 lf 995,3 hPa 0,0 l/m 0 min 0 min 0 W/m 24,8 km/h (4 Bft) 97,87 %
17.01.2018 07:24 0,9 C 0,6 C -0,6 C 95 % 15 lf 995,4 hPa 0,0 l/m 0 min 2 min 0 W/m 40,6 km/h (6 Bft) 95,74 %
17.01.2018 07:26 0,9 C 0,6 C -0,6 C 95 % 15 lf 995,4 hPa 0,0 l/m 0 min 0 min 0 W/m 27,0 km/h (4 Bft) 97,87 %
17.01.2018 07:28 0,9 C 0,6 C -0,6 C 95 % 15 lf 995,4 hPa 0,0 l/m 0 min 2 min 0 W/m 29,3 km/h (5 Bft) 97,87 %
17.01.2018 07:30 0,9 C 0,6 C -0,6 C 95 % 15 lf 995,5 hPa 0,0 l/m 0 min 2 min 0 W/m 33,8 km/h (5 Bft) 97,83 %
17.01.2018 07:32 0,9 C 0,6 C -0,6 C 95 % 15 lf 995,4 hPa 0,0 l/m 0 min 0 min 0 W/m 33,8 km/h (5 Bft) 95,74 %
17.01.2018 07:34 0,9 C 0,6 C -0,6 C 95 % 15 lf 995,5 hPa 0,0 l/m 0 min 0 min 0 W/m 31,5 km/h (5 Bft) 95,74 %
17.01.2018 07:36 1,0 C 0,6 C -0,6 C 95 % 15 lf 995,6 hPa 0,0 l/m 0 min 2 min 0 W/m 42,8 km/h (6 Bft) 97,87 %
17.01.2018 07:38 1,0 C 0,6 C -0,6 C 95 % 15 lf 995,7 hPa 0,0 l/m 0 min 2 min 0 W/m 33,8 km/h (5 Bft) 97,87 %
17.01.2018 07:40 1,0 C 0,6 C -0,6 C 95 % 15 lf 995,7 hPa 0,0 l/m 0 min 2 min 0 W/m 36,0 km/h (5 Bft) 97,87 %
17.01.2018 07:42 1,1 C 0,6 C -0,6 C 95 % 15 lf 995,7 hPa 0,0 l/m 0 min 0 min 0 W/m 29,3 km/h (5 Bft) 95,65 %
17.01.2018 07:44 1,1 C 0,6 C -0,6 C 95 % 15 lf 995,7 hPa 0,0 l/m 0 min 0 min 0 W/m 31,5 km/h (5 Bft) 95,74 %
17.01.2018 07:46 1,1 C 0,6 C -0,6 C 95 % 15 lf 995,7 hPa 0,0 l/m 0 min 0 min 0 W/m 29,3 km/h (5 Bft) 93,62 %
17.01.2018 07:48 1,1 C 0,6 C -0,6 C 95 % 15 lf 995,6 hPa 0,0 l/m 0 min 0 min 0 W/m 36,0 km/h (5 Bft) 97,87 %
17.01.2018 07:50 1,1 C 0,6 C -0,6 C 95 % 15 lf 995,8 hPa 0,0 l/m 0 min 2 min 0 W/m 38,3 km/h (5 Bft) 100,00 %
17.01.2018 07:52 1,1 C 0,6 C -0,6 C 95 % 15 lf 995,8 hPa 0,0 l/m 0 min 2 min 0 W/m 31,5 km/h (5 Bft) 97,87 %
17.01.2018 07:54 1,1 C 0,6 C -0,6 C 95 % 15 lf 995,8 hPa 0,0 l/m 0 min 0 min 0 W/m 29,3 km/h (5 Bft) 100,00 %
17.01.2018 07:56 1,2 C 0,6 C -0,6 C 95 % 15 lf 995,8 hPa 0,0 l/m 0 min 2 min 0 W/m 29,3 km/h (5 Bft) 100,00 %
17.01.2018 07:58 1,1 C 0,6 C -0,6 C 95 % 15 lf 996,0 hPa 0,0 l/m 0 min 0 min 0 W/m 33,8 km/h (5 Bft) 97,87 %
17.01.2018 08:00 1,2 C 0,6 C -0,6 C 95 % 15 lf 996,1 hPa 0,2 l/m 0 min 2 min 0 W/m 29,3 km/h (5 Bft) 100,00 %
17.01.2018 08:02 1,1 C 0,6 C -0,6 C 95 % 15 lf 996,2 hPa 0,0 l/m 0 min 0 min 0 W/m 31,5 km/h (5 Bft) 97,87 %
17.01.2018 08:04 1,2 C 0,6 C -0,6 C 95 % 15 lf 996,4 hPa 0,0 l/m 0 min 0 min 0 W/m 33,8 km/h (5 Bft) 97,83 %
17.01.2018 08:06 1,2 C 1,1 C -0,6 C 95 % 15 lf 996,3 hPa 0,0 l/m 0 min 2 min 0 W/m 31,5 km/h (5 Bft) 97,87 %
17.01.2018 08:08 1,2 C 1,1 C -0,6 C 95 % 15 lf 996,4 hPa 0,0 l/m 0 min 0 min 0 W/m 38,3 km/h (5 Bft) 100,00 %
17.01.2018 08:10 1,2 C 1,1 C -0,6 C 95 % 15 lf 996,4 hPa 0,0 l/m 0 min 2 min 0 W/m 42,8 km/h (6 Bft) 100,00 %
17.01.2018 08:12 1,2 C 1,1 C -0,6 C 95 % 15 lf 996,4 hPa 0,0 l/m 0 min 0 min 0 W/m 24,8 km/h (4 Bft) 97,87 %
17.01.2018 08:14 1,2 C 0,6 C -0,6 C 95 % 15 lf 996,4 hPa 0,0 l/m 0 min 0 min 0 W/m 36,0 km/h (5 Bft) 97,87 %
17.01.2018 08:16 1,2 C 0,6 C -0,6 C 95 % 15 lf 996,4 hPa 0,0 l/m 0 min 0 min 0 W/m 33,8 km/h (5 Bft) 100,00 %
17.01.2018 08:18 1,2 C 0,6 C -0,6 C 95 % 15 lf 996,4 hPa 0,0 l/m 0 min 0 min 0 W/m 36,0 km/h (5 Bft) 97,87 %
17.01.2018 08:20 1,2 C 0,6 C -0,6 C 95 % 15 lf 996,4 hPa 0,0 l/m 0 min 0 min 0 W/m 31,5 km/h (5 Bft) 100,00 %
17.01.2018 08:22 1,2 C 0,6 C -0,6 C 95 % 15 lf 996,6 hPa 0,0 l/m 0 min 0 min 0 W/m 36,0 km/h (5 Bft) 95,74 %
17.01.2018 08:24 1,2 C 0,6 C -0,6 C 95 % 15 lf 996,6 hPa 0,0 l/m 0 min 0 min 0 W/m 33,8 km/h (5 Bft) 100,00 %
17.01.2018 08:26 1,2 C 0,6 C -0,6 C 95 % 15 lf 996,5 hPa 0,0 l/m 0 min 0 min 0 W/m 29,3 km/h (5 Bft) 100,00 %
17.01.2018 08:28 1,2 C 0,6 C -0,6 C 95 % 15 lf 996,5 hPa 0,0 l/m 0 min 0 min 0 W/m 27,0 km/h (4 Bft) 100,00 %
17.01.2018 08:30 1,2 C 0,6 C -0,6 C 95 % 15 lf 996,6 hPa 0,0 l/m 0 min 0 min 0 W/m 22,5 km/h (4 Bft) 93,62 %
17.01.2018 08:32 1,1 C 0,6 C -0,6 C 95 % 15 lf 996,7 hPa 0,0 l/m 0 min 2 min 5 W/m 42,8 km/h (6 Bft) 97,87 %
17.01.2018 08:34 1,1 C 0,6 C -0,6 C 95 % 15 lf 996,8 hPa 0,0 l/m 0 min 2 min 5 W/m 27,0 km/h (4 Bft) 97,87 %
17.01.2018 08:36 1,1 C 0,6 C -0,6 C 95 % 15 lf 996,9 hPa 0,0 l/m 0 min 2 min 5 W/m 31,5 km/h (5 Bft) 94,29 %
17.01.2018 08:38 1,1 C 0,6 C -0,6 C 95 % 15 lf 997,0 hPa 0,0 l/m 0 min 0 min 6 W/m 38,3 km/h (5 Bft) 93,62 %
17.01.2018 08:40 1,1 C 0,6 C -0,6 C 94 % 15 lf 997,1 hPa 0,0 l/m 0 min 0 min 7 W/m 33,8 km/h (5 Bft) 97,87 %
17.01.2018 08:42 1,1 C 0,6 C -0,6 C 94 % 15 lf 997,1 hPa 0,0 l/m 0 min 0 min 7 W/m 29,3 km/h (5 Bft) 95,65 %
17.01.2018 08:44 1,1 C 0,6 C -0,6 C 94 % 15 lf 997,1 hPa 0,0 l/m 0 min 0 min 8 W/m 31,5 km/h (5 Bft) 97,87 %
17.01.2018 08:46 1,1 C 0,6 C -0,6 C 94 % 15 lf 997,2 hPa 0,0 l/m 0 min 2 min 9 W/m 36,0 km/h (5 Bft) 97,87 %
17.01.2018 08:48 1,1 C 0,6 C -0,6 C 94 % 15 lf 997,3 hPa 0,0 l/m 0 min 0 min 9 W/m 27,0 km/h (4 Bft) 93,62 %
17.01.2018 08:50 1,1 C 0,6 C -0,6 C 94 % 15 lf 997,2 hPa 0,0 l/m 0 min 0 min 10 W/m 38,3 km/h (5 Bft) 98,31 %
17.01.2018 08:52 1,0 C 0,6 C -0,6 C 94 % 15 lf 997,4 hPa 0,0 l/m 0 min 2 min 9 W/m 33,8 km/h (5 Bft) 94,29 %
17.01.2018 08:54 1,1 C 0,6 C -0,6 C 94 % 15 lf 997,4 hPa 0,0 l/m 0 min 2 min 10 W/m 31,5 km/h (5 Bft) 97,87 %
17.01.2018 08:56 1,0 C 0,6 C -0,6 C 94 % 15 lf 997,4 hPa 0,0 l/m 0 min 2 min 11 W/m 36,0 km/h (5 Bft) 95,65 %
17.01.2018 08:58 1,1 C 0,6 C -0,6 C 94 % 15 lf 997,5 hPa 0,0 l/m 0 min 2 min 11 W/m 40,6 km/h (6 Bft) 97,87 %
17.01.2018 09:00 1,1 C 0,6 C -0,6 C 94 % 15 lf 997,5 hPa 0,0 l/m 0 min 2 min 11 W/m 38,3 km/h (5 Bft) 95,74 %
17.01.2018 09:02 1,1 C 0,6 C -0,6 C 94 % 15 lf 997,6 hPa 0,0 l/m 0 min 2 min 11 W/m 36,0 km/h (5 Bft) 97,87 %
17.01.2018 09:04 1,1 C 0,6 C -0,6 C 94 % 15 lf 997,6 hPa 0,0 l/m 0 min 0 min 12 W/m 38,3 km/h (5 Bft) 93,62 %
17.01.2018 09:06 1,1 C 0,6 C -0,6 C 94 % 15 lf 997,7 hPa 0,0 l/m 0 min 0 min 12 W/m 33,8 km/h (5 Bft) 96,23 %
17.01.2018 09:08 1,1 C 0,6 C -0,6 C 94 % 15 lf 997,8 hPa 0,0 l/m 0 min 0 min 14 W/m 33,8 km/h (5 Bft) 95,74 %
17.01.2018 09:10 1,1 C 0,6 C -0,6 C 94 % 15 lf 997,8 hPa 0,0 l/m 0 min 0 min 16 W/m 40,6 km/h (6 Bft) 91,49 %
17.01.2018 09:12 1,1 C 0,6 C -0,6 C 94 % 15 lf 997,9 hPa 0,0 l/m 0 min 0 min 16 W/m 36,0 km/h (5 Bft) 86,96 %
17.01.2018 09:14 1,1 C 0,6 C -0,6 C 94 % 15 lf 997,9 hPa 0,0 l/m 0 min 2 min 19 W/m 31,5 km/h (5 Bft) 93,62 %
17.01.2018 09:16 1,1 C 0,6 C -0,6 C 94 % 15 lf 997,9 hPa 0,0 l/m 0 min 0 min 25 W/m 33,8 km/h (5 Bft) 95,74 %
17.01.2018 09:18 1,1 C 0,6 C -0,6 C 94 % 15 lf 998,0 hPa 0,0 l/m 0 min 0 min 33 W/m 36,0 km/h (5 Bft) 95,74 %
17.01.2018 09:20 1,1 C 1,1 C -0,6 C 94 % 15 lf 998,0 hPa 0,0 l/m 0 min 2 min 38 W/m 49,6 km/h (6 Bft) 98,28 %
17.01.2018 09:22 1,1 C 1,1 C -0,6 C 94 % 15 lf 997,9 hPa 0,0 l/m 0 min 0 min 44 W/m 47,3 km/h (6 Bft) 94,44 %
17.01.2018 09:24 1,1 C 1,1 C -0,6 C 94 % 15 lf 998,1 hPa 0,0 l/m 0 min 0 min 43 W/m 33,8 km/h (5 Bft) 93,48 %
17.01.2018 09:26 1,1 C 1,1 C -0,6 C 95 % 15 lf 998,1 hPa 0,0 l/m 0 min 2 min 27 W/m 33,8 km/h (5 Bft) 91,49 %
17.01.2018 09:28 1,1 C 1,1 C -0,6 C 95 % 15 lf 998,1 hPa 0,0 l/m 0 min 0 min 26 W/m 29,3 km/h (5 Bft) 91,49 %
17.01.2018 09:30 1,1 C 0,6 C -0,6 C 95 % 15 lf 998,2 hPa 0,2 l/m 0 min 0 min 25 W/m 31,5 km/h (5 Bft) 93,62 %
17.01.2018 09:32 1,1 C 0,6 C -0,6 C 95 % 15 lf 998,2 hPa 0,0 l/m 0 min 0 min 25 W/m 27,0 km/h (4 Bft) 91,49 %
17.01.2018 09:34 1,1 C 0,6 C -0,6 C 95 % 15 lf 998,2 hPa 0,0 l/m 0 min 0 min 31 W/m 22,5 km/h (4 Bft) 95,74 %
17.01.2018 09:36 1,1 C 1,1 C -0,6 C 94 % 15 lf 998,3 hPa 0,0 l/m 0 min 0 min 44 W/m 27,0 km/h (4 Bft) 93,48 %
17.01.2018 09:38 1,1 C 1,1 C -0,6 C 94 % 15 lf 998,2 hPa 0,0 l/m 0 min 0 min 43 W/m 24,8 km/h (4 Bft) 91,49 %
17.01.2018 09:40 1,1 C 1,1 C -0,6 C 94 % 15 lf 998,3 hPa 0,0 l/m 0 min 0 min 44 W/m 33,8 km/h (5 Bft) 93,62 %
17.01.2018 09:42 1,1 C 1,1 C -0,6 C 94 % 15 lf 998,3 hPa 0,0 l/m 0 min 0 min 58 W/m 33,8 km/h (5 Bft) 95,74 %
17.01.2018 09:44 1,1 C 1,1 C -0,6 C 94 % 15 lf 998,4 hPa 0,0 l/m 0 min 0 min 63 W/m 33,8 km/h (5 Bft) 93,62 %
17.01.2018 09:46 1,1 C 1,1 C -0,6 C 94 % 15 lf 998,4 hPa 0,0 l/m 2 min 0 min 86 W/m 31,5 km/h (5 Bft) 95,65 %
17.01.2018 09:48 1,2 C 1,1 C -0,6 C 94 % 15 lf 998,5 hPa 0,0 l/m 0 min 0 min 75 W/m 33,8 km/h (5 Bft) 95,74 %
17.01.2018 09:50 1,2 C 1,1 C -0,6 C 94 % 15 lf 998,5 hPa 0,0 l/m 0 min 0 min 81 W/m 36,0 km/h (5 Bft) 96,61 %
17.01.2018 09:52 1,2 C 1,1 C -0,6 C 94 % 15 lf 998,5 hPa 0,0 l/m 2 min 0 min 92 W/m 24,8 km/h (4 Bft) 94,29 %
17.01.2018 09:54 1,2 C 1,1 C -0,6 C 94 % 15 lf 998,5 hPa 0,0 l/m 2 min 0 min 108 W/m 31,5 km/h (5 Bft) 95,74 %
17.01.2018 09:56 1,2 C 1,1 C 0,0 C 95 % 15 lf 998,5 hPa 0,0 l/m 2 min 0 min 108 W/m 33,8 km/h (5 Bft) 95,74 %
17.01.2018 09:58 1,2 C 1,1 C 0,0 C 95 % 15 lf 998,6 hPa 0,0 l/m 2 min 0 min 117 W/m 33,8 km/h (5 Bft) 95,65 %
17.01.2018 10:00 1,2 C 1,7 C 0,0 C 95 % 15 lf 998,6 hPa 0,0 l/m 2 min 2 min 133 W/m 33,8 km/h (5 Bft) 97,87 %
17.01.2018 10:02 1,2 C 1,7 C 0,0 C 95 % 15 lf 998,7 hPa 0,0 l/m 2 min 0 min 140 W/m 36,0 km/h (5 Bft) 95,74 %
17.01.2018 10:04 1,3 C 1,7 C 0,0 C 95 % 15 lf 998,8 hPa 0,0 l/m 2 min 0 min 154 W/m 31,5 km/h (5 Bft) 97,87 %
17.01.2018 10:06 1,3 C 1,7 C 0,0 C 94 % 15 lf 998,8 hPa 0,0 l/m 2 min 0 min 153 W/m 29,3 km/h (5 Bft) 97,92 %
17.01.2018 10:08 1,3 C 2,2 C 0,0 C 94 % 15 lf 998,8 hPa 0,0 l/m 2 min 2 min 141 W/m 27,0 km/h (4 Bft) 97,87 %
17.01.2018 10:10 1,4 C 1,7 C 0,0 C 94 % 15 lf 998,8 hPa 0,0 l/m 2 min 2 min 142 W/m 45,1 km/h (6 Bft) 93,48 %
17.01.2018 10:12 1,4 C 2,2 C 0,0 C 94 % 14 lf 998,9 hPa 0,0 l/m 2 min 0 min 110 W/m 31,5 km/h (5 Bft) 97,87 %
17.01.2018 10:14 1,4 C 2,2 C 0,0 C 94 % 14 lf 998,9 hPa 0,0 l/m 2 min 0 min 117 W/m 42,8 km/h (6 Bft) 97,87 %
17.01.2018 10:16 1,4 C 1,7 C 0,0 C 94 % 13 lf 999,0 hPa 0,0 l/m 2 min 0 min 114 W/m 38,3 km/h (5 Bft) 97,87 %
17.01.2018 10:18 1,5 C 1,7 C 0,0 C 95 % 12 lf 999,1 hPa 0,0 l/m 0 min 2 min 83 W/m 42,8 km/h (6 Bft) 97,87 %
17.01.2018 10:20 1,5 C 1,7 C 0,0 C 95 % 10 lf 999,2 hPa 0,0 l/m 0 min 2 min 71 W/m 40,6 km/h (6 Bft) 94,83 %
17.01.2018 10:22 1,5 C 1,7 C 0,0 C 94 % 10 lf 999,1 hPa 0,0 l/m 0 min 2 min 55 W/m 27,0 km/h (4 Bft) 97,14 %
17.01.2018 10:24 1,5 C 1,7 C 0,0 C 94 % 10 lf 999,1 hPa 0,0 l/m 0 min 0 min 47 W/m 42,8 km/h (6 Bft) 95,74 %
17.01.2018 10:26 1,5 C 1,7 C 0,0 C 94 % 8 lf 999,2 hPa 0,0 l/m 0 min 2 min 61 W/m 29,3 km/h (5 Bft) 95,74 %
17.01.2018 10:28 1,5 C 1,7 C 0,0 C 94 % 4 lf 999,3 hPa 0,0 l/m 0 min 2 min 109 W/m 51,8 km/h (7 Bft) 95,74 %
17.01.2018 10:30 1,6 C 1,7 C 0,0 C 94 % 3 lf 999,4 hPa 0,0 l/m 0 min 2 min 97 W/m 38,3 km/h (5 Bft) 97,87 %
17.01.2018 10:32 1,6 C 2,2 C 0,0 C 94 % 3 lf 999,4 hPa 0,0 l/m 0 min 0 min 102 W/m 27,0 km/h (4 Bft) 97,83 %
17.01.2018 10:34 1,6 C 2,2 C 0,0 C 94 % 2 lf 999,4 hPa 0,0 l/m 2 min 0 min 153 W/m 29,3 km/h (5 Bft) 97,87 %
17.01.2018 10:36 1,6 C 2,2 C 0,6 C 94 % 2 lf 999,4 hPa 0,2 l/m 2 min 0 min 182 W/m 24,8 km/h (4 Bft) 100,00 %
17.01.2018 10:38 1,6 C 2,2 C 0,6 C 94 % 1 lf 999,3 hPa 0,0 l/m 2 min 0 min 155 W/m 33,8 km/h (5 Bft) 100,00 %
17.01.2018 10:40 1,6 C 2,2 C 0,0 C 94 % 0 lf 999,5 hPa 0,0 l/m 2 min 0 min 152 W/m 31,5 km/h (5 Bft) 100,00 %
17.01.2018 10:42 1,6 C 2,2 C 0,0 C 94 % 0 lf 999,4 hPa 0,0 l/m 2 min 0 min 169 W/m 31,5 km/h (5 Bft) 97,87 %
17.01.2018 10:44 1,6 C 2,2 C 0,0 C 94 % 0 lf 999,5 hPa 0,0 l/m 2 min 0 min 147 W/m 45,1 km/h (6 Bft) 100,00 %
17.01.2018 10:46 1,6 C 2,2 C 0,0 C 94 % 0 lf 999,5 hPa 0,0 l/m 2 min 0 min 143 W/m 29,3 km/h (5 Bft) 100,00 %
17.01.2018 10:48 1,6 C 2,2 C 0,0 C 94 % 0 lf 999,5 hPa 0,0 l/m 0 min 0 min 124 W/m 33,8 km/h (5 Bft) 97,87 %
17.01.2018 10:50 1,6 C 2,8 C 0,0 C 94 % 0 lf 999,5 hPa 0,0 l/m 2 min 0 min 178 W/m 33,8 km/h (5 Bft) 100,00 %
17.01.2018 10:52 1,6 C 2,8 C 0,6 C 94 % 0 lf 999,5 hPa 0,0 l/m 2 min 0 min 234 W/m 31,5 km/h (5 Bft) 62,75 %
17.01.2018 10:54 1,6 C 2,8 C 0,6 C 94 % 0 lf 999,5 hPa 0,0 l/m 2 min 0 min 232 W/m 22,5 km/h (4 Bft) 96,12 %
17.01.2018 10:56 1,6 C 2,8 C 0,6 C 94 % 0 lf 999,6 hPa 0,0 l/m 2 min 0 min 190 W/m 33,8 km/h (5 Bft) 100,00 %
17.01.2018 10:58 1,6 C 3,9 C 0,6 C 94 % 0 lf 999,6 hPa 0,2 l/m 2 min 2 min 298 W/m 33,8 km/h (5 Bft) 95,74 %
17.01.2018 11:00 1,7 C 3,3 C 0,6 C 94 % 0 lf 999,7 hPa 0,0 l/m 2 min 0 min 249 W/m 31,5 km/h (5 Bft) 97,87 %
17.01.2018 11:02 1,7 C 2,8 C 0,6 C 94 % 0 lf 999,6 hPa 0,0 l/m 0 min 0 min 131 W/m 42,8 km/h (6 Bft) 95,74 %
17.01.2018 11:04 1,7 C 2,8 C 0,6 C 94 % 0 lf 999,6 hPa 0,0 l/m 0 min 0 min 129 W/m 38,3 km/h (5 Bft) 100,00 %
17.01.2018 11:06 1,7 C 2,2 C 0,6 C 94 % 0 lf 999,6 hPa 0,0 l/m 2 min 0 min 165 W/m 36,0 km/h (5 Bft) 95,74 %
17.01.2018 11:08 1,7 C 2,8 C 0,6 C 94 % 0 lf 999,6 hPa 0,0 l/m 2 min 2 min 167 W/m 38,3 km/h (5 Bft) 100,00 %
17.01.2018 11:10 1,7 C 2,8 C 0,6 C 94 % 0 lf 999,7 hPa 0,0 l/m 2 min 2 min 152 W/m 51,8 km/h (7 Bft) 96,77 %
17.01.2018 11:12 1,8 C 3,3 C 0,6 C 94 % 0 lf 999,6 hPa 0,0 l/m 2 min 0 min 198 W/m 38,3 km/h (5 Bft) 97,87 %
17.01.2018 11:14 1,8 C 3,3 C 0,6 C 94 % 0 lf 999,6 hPa 0,0 l/m 2 min 0 min 158 W/m 31,5 km/h (5 Bft) 97,83 %
17.01.2018 11:16 1,8 C 2,8 C 0,6 C 94 % 0 lf 999,6 hPa 0,0 l/m 0 min 0 min 147 W/m 31,5 km/h (5 Bft) 95,74 %
17.01.2018 11:18 1,8 C 2,2 C 0,6 C 94 % 0 lf 999,7 hPa 0,2 l/m 2 min 0 min 174 W/m 40,6 km/h (6 Bft) 95,74 %
17.01.2018 11:20 1,8 C 2,2 C 0,6 C 94 % 0 lf 999,8 hPa 0,0 l/m 0 min 0 min 101 W/m 40,6 km/h (6 Bft) 94,92 %
17.01.2018 11:22 1,8 C 3,3 C 0,6 C 94 % 0 lf 999,9 hPa 0,0 l/m 2 min 0 min 172 W/m 38,3 km/h (5 Bft) 93,48 %
17.01.2018 11:24 1,9 C 2,8 C 0,6 C 94 % 1 lf 999,9 hPa 0,0 l/m 0 min 0 min 115 W/m 45,1 km/h (6 Bft) 94,44 %
17.01.2018 11:26 1,9 C 2,8 C 0,6 C 94 % 3 lf 999,8 hPa 0,0 l/m 2 min 2 min 162 W/m 42,8 km/h (6 Bft) 95,65 %
17.01.2018 11:28 1,9 C 3,9 C 0,6 C 94 % 3 lf 999,8 hPa 0,0 l/m 2 min 2 min 200 W/m 47,3 km/h (6 Bft) 93,62 %
17.01.2018 11:30 1,9 C 3,3 C 0,6 C 94 % 2 lf 999,9 hPa 0,0 l/m 2 min 2 min 222 W/m 49,6 km/h (6 Bft) 95,74 %
17.01.2018 11:32 2,0 C 4,4 C 0,6 C 94 % 1 lf 999,9 hPa 0,0 l/m 2 min 2 min 198 W/m 33,8 km/h (5 Bft) 94,00 %
17.01.2018 11:34 2,0 C 3,9 C 0,6 C 94 % 0 lf 1000,0 hPa 0,2 l/m 2 min 0 min 251 W/m 42,8 km/h (6 Bft) 95,74 %
17.01.2018 11:36 2,1 C 3,9 C 0,6 C 94 % 0 lf 1000,0 hPa 0,0 l/m 0 min 0 min 157 W/m 36,0 km/h (5 Bft) 91,67 %
17.01.2018 11:38 2,1 C 4,4 C 1,1 C 94 % 0 lf 1000,2 hPa 0,0 l/m 2 min 0 min 245 W/m 47,3 km/h (6 Bft) 95,74 %
17.01.2018 11:40 2,2 C 5,0 C 1,1 C 94 % 0 lf 1000,0 hPa 0,0 l/m 2 min 0 min 269 W/m 49,6 km/h (6 Bft) 95,74 %
17.01.2018 11:42 2,2 C 3,9 C 1,1 C 94 % 0 lf 1000,2 hPa 0,0 l/m 2 min 2 min 240 W/m 54,1 km/h (7 Bft) 93,62 %
17.01.2018 11:44 2,2 C 3,3 C 1,1 C 94 % 0 lf 1000,3 hPa 0,0 l/m 0 min 2 min 125 W/m 40,6 km/h (6 Bft) 93,48 %
17.01.2018 11:46 2,2 C 3,3 C 1,1 C 94 % 0 lf 1000,2 hPa 0,0 l/m 0 min 0 min 98 W/m 36,0 km/h (5 Bft) 95,74 %
17.01.2018 11:48 2,3 C 2,8 C 1,1 C 94 % 0 lf 1000,4 hPa 0,0 l/m 0 min 0 min 61 W/m 45,1 km/h (6 Bft) 97,87 %
17.01.2018 11:50 2,3 C 2,8 C 1,1 C 94 % 0 lf 1000,3 hPa 0,2 l/m 0 min 0 min 82 W/m 29,3 km/h (5 Bft) 96,61 %
17.01.2018 11:52 2,3 C 2,8 C 1,1 C 94 % 0 lf 1000,3 hPa 0,0 l/m 0 min 0 min 106 W/m 49,6 km/h (6 Bft) 94,29 %
17.01.2018 11:54 2,3 C 2,8 C 1,1 C 94 % 1 lf 1000,3 hPa 0,0 l/m 0 min 0 min 114 W/m 45,1 km/h (6 Bft) 95,74 %
17.01.2018 11:56 2,3 C 3,3 C 1,1 C 94 % 1 lf 1000,2 hPa 0,0 l/m 0 min 0 min 92 W/m 36,0 km/h (5 Bft) 95,65 %
17.01.2018 11:58 2,3 C 2,8 C 1,1 C 94 % 0 lf 1000,2 hPa 0,0 l/m 0 min 0 min 66 W/m 54,1 km/h (7 Bft) 95,74 %
17.01.2018 12:00 2,3 C 2,8 C 1,1 C 93 % 0 lf 1000,3 hPa 0,0 l/m 0 min 0 min 41 W/m 36,0 km/h (5 Bft) 93,62 %
17.01.2018 12:02 2,3 C 2,8 C 1,1 C 93 % 0 lf 1000,3 hPa 0,0 l/m 0 min 0 min 56 W/m 42,8 km/h (6 Bft) 93,62 %
17.01.2018 12:04 2,3 C 2,8 C 1,1 C 93 % 0 lf 1000,3 hPa 0,2 l/m 0 min 2 min 81 W/m 56,3 km/h (7 Bft) 93,62 %
17.01.2018 12:06 2,4 C 2,8 C 1,1 C 93 % 0 lf 1000,3 hPa 0,0 l/m 0 min 2 min 89 W/m 38,3 km/h (5 Bft) 95,83 %
17.01.2018 12:08 2,4 C 2,8 C 1,1 C 93 % 1 lf 1000,3 hPa 0,0 l/m 0 min 0 min 111 W/m 40,6 km/h (6 Bft) 97,87 %
17.01.2018 12:10 2,4 C 2,8 C 1,1 C 93 % 2 lf 1000,3 hPa 0,0 l/m 0 min 2 min 100 W/m 49,6 km/h (6 Bft) 97,87 %
17.01.2018 12:12 2,4 C 3,3 C 1,1 C 93 % 1 lf 1000,3 hPa 0,0 l/m 0 min 0 min 89 W/m 45,1 km/h (6 Bft) 97,83 %
17.01.2018 12:14 2,4 C 2,8 C 1,1 C 93 % 0 lf 1000,3 hPa 0,0 l/m 0 min 2 min 88 W/m 49,6 km/h (6 Bft) 97,87 %
17.01.2018 12:16 2,4 C 3,3 C 1,1 C 93 % 1 lf 1000,4 hPa 0,0 l/m 0 min 2 min 115 W/m 49,6 km/h (6 Bft) 97,87 %
17.01.2018 12:18 2,4 C 3,3 C 1,7 C 93 % 2 lf 1000,4 hPa 0,0 l/m 0 min 2 min 139 W/m 42,8 km/h (6 Bft) 97,87 %
17.01.2018 12:20 2,5 C 3,3 C 1,7 C 93 % 3 lf 1000,4 hPa 0,0 l/m 0 min 2 min 157 W/m 40,6 km/h (6 Bft) 91,38 %
17.01.2018 12:22 2,5 C 3,3 C 1,7 C 93 % 4 lf 1000,4 hPa 0,2 l/m 2 min 2 min 173 W/m 51,8 km/h (7 Bft) 94,29 %
17.01.2018 12:24 2,6 C 3,9 C 1,7 C 93 % 4 lf 1000,4 hPa 0,0 l/m 2 min 2 min 185 W/m 45,1 km/h (6 Bft) 97,87 %
17.01.2018 12:26 2,6 C 3,3 C 1,7 C 93 % 3 lf 1000,5 hPa 0,0 l/m 0 min 0 min 119 W/m 40,6 km/h (6 Bft) 93,62 %
17.01.2018 12:28 2,6 C 2,8 C 1,1 C 93 % 2 lf 1000,5 hPa 0,0 l/m 0 min 0 min 49 W/m 36,0 km/h (5 Bft) 95,74 %
17.01.2018 12:30 2,6 C 2,8 C 1,1 C 93 % 14 lf 1000,5 hPa 0,0 l/m 0 min 2 min 64 W/m 47,3 km/h (6 Bft) 97,87 %
17.01.2018 12:32 2,5 C 2,8 C 1,1 C 93 % 15 lf 1000,6 hPa 0,0 l/m 0 min 2 min 69 W/m 45,1 km/h (6 Bft) 97,87 %
17.01.2018 12:34 2,5 C 2,2 C 1,1 C 93 % 15 lf 1000,5 hPa 0,0 l/m 0 min 2 min 72 W/m 45,1 km/h (6 Bft) 95,65 %
17.01.2018 12:36 2,4 C 2,2 C 1,1 C 93 % 15 lf 1000,4 hPa 0,2 l/m 0 min 2 min 78 W/m 40,6 km/h (6 Bft) 97,87 %
17.01.2018 12:38 2,4 C 2,2 C 1,1 C 93 % 15 lf 1000,5 hPa 0,0 l/m 0 min 2 min 113 W/m 47,3 km/h (6 Bft) 97,87 %
17.01.2018 12:40 2,4 C 2,2 C 1,1 C 93 % 15 lf 1000,6 hPa 0,0 l/m 0 min 2 min 67 W/m 33,8 km/h (5 Bft) 100,00 %
17.01.2018 12:42 2,4 C 2,2 C 1,1 C 93 % 15 lf 1000,6 hPa 0,0 l/m 0 min 2 min 74 W/m 29,3 km/h (5 Bft) 97,87 %
17.01.2018 12:44 2,3 C 2,2 C 1,1 C 93 % 15 lf 1000,7 hPa 0,0 l/m 0 min 2 min 59 W/m 29,3 km/h (5 Bft) 97,87 %
17.01.2018 12:46 2,3 C 2,2 C 1,1 C 93 % 15 lf 1000,7 hPa 0,0 l/m 0 min 2 min 72 W/m 29,3 km/h (5 Bft) 100,00 %
17.01.2018 12:48 2,3 C 2,2 C 1,1 C 93 % 15 lf 1000,7 hPa 0,2 l/m 0 min 2 min 73 W/m 33,8 km/h (5 Bft) 100,00 %
17.01.2018 12:50 2,3 C 2,2 C 1,1 C 93 % 15 lf 1000,7 hPa 0,0 l/m 0 min 2 min 49 W/m 40,6 km/h (6 Bft) 100,00 %
17.01.2018 12:52 2,3 C 2,2 C 1,1 C 93 % 15 lf 1000,8 hPa 0,0 l/m 0 min 0 min 53 W/m 29,3 km/h (5 Bft) 97,14 %
17.01.2018 12:54 2,3 C 2,2 C 1,1 C 93 % 15 lf 1000,7 hPa 0,0 l/m 0 min 0 min 106 W/m 40,6 km/h (6 Bft) 97,87 %
17.01.2018 12:56 2,3 C 2,2 C 1,7 C 94 % 15 lf 1000,7 hPa 0,0 l/m 0 min 2 min 131 W/m 38,3 km/h (5 Bft) 97,87 %
17.01.2018 12:58 2,3 C 2,8 C 1,7 C 94 % 15 lf 1000,7 hPa 0,0 l/m 0 min 2 min 113 W/m 36,0 km/h (5 Bft) 97,83 %
17.01.2018 13:00 2,4 C 2,8 C 1,1 C 94 % 15 lf 1000,7 hPa 0,0 l/m 0 min 2 min 75 W/m 40,6 km/h (6 Bft) 91,49 %
17.01.2018 13:02 2,4 C 2,8 C 1,7 C 94 % 15 lf 1000,7 hPa 0,0 l/m 0 min 2 min 84 W/m 36,0 km/h (5 Bft) 97,87 %
17.01.2018 13:04 2,4 C 2,8 C 1,7 C 94 % 15 lf 1000,7 hPa 0,2 l/m 0 min 0 min 108 W/m 36,0 km/h (5 Bft) 97,87 %
17.01.2018 13:06 2,4 C 3,3 C 1,7 C 94 % 15 lf 1000,7 hPa 0,0 l/m 2 min 0 min 197 W/m 45,1 km/h (6 Bft) 95,74 %
17.01.2018 13:08 2,6 C 5,6 C 2,2 C 94 % 15 lf 1000,7 hPa 0,0 l/m 2 min 0 min 303 W/m 40,6 km/h (6 Bft) 93,62 %
17.01.2018 13:10 2,6 C 5,6 C 2,2 C 94 % 15 lf 1000,7 hPa 0,0 l/m 2 min 0 min 326 W/m 36,0 km/h (5 Bft) 95,65 %
17.01.2018 13:12 2,7 C 5,0 C 1,7 C 94 % 15 lf 1000,7 hPa 0,0 l/m 2 min 0 min 232 W/m 40,6 km/h (6 Bft) 95,74 %
17.01.2018 13:14 2,7 C 3,9 C 1,7 C 94 % 15 lf 1000,7 hPa 0,0 l/m 0 min 0 min 115 W/m 45,1 km/h (6 Bft) 97,87 %
17.01.2018 13:16 2,8 C 3,9 C 1,7 C 94 % 15 lf 1000,7 hPa 0,0 l/m 0 min 2 min 114 W/m 40,6 km/h (6 Bft) 93,62 %
17.01.2018 13:18 2,8 C 3,3 C 1,7 C 94 % 15 lf 1000,6 hPa 0,0 l/m 0 min 0 min 113 W/m 42,8 km/h (6 Bft) 91,49 %
17.01.2018 13:20 2,7 C 3,3 C 1,7 C 94 % 15 lf 1000,8 hPa 0,0 l/m 0 min 0 min 66 W/m 36,0 km/h (5 Bft) 93,10 %
17.01.2018 13:22 2,8 C 3,9 C 1,7 C 94 % 15 lf 1000,8 hPa 0,0 l/m 0 min 0 min 90 W/m 33,8 km/h (5 Bft) 94,29 %
17.01.2018 13:24 2,8 C 4,4 C 1,7 C 94 % 15 lf 1000,7 hPa 0,2 l/m 0 min 0 min 122 W/m 31,5 km/h (5 Bft) 95,74 %
17.01.2018 13:26 2,8 C 5,6 C 1,7 C 94 % 15 lf 1000,7 hPa 0,0 l/m 2 min 0 min 177 W/m 33,8 km/h (5 Bft) 95,74 %
17.01.2018 13:28 2,8 C 6,7 C 1,7 C 94 % 15 lf 1000,7 hPa 0,0 l/m 2 min 0 min 258 W/m 42,8 km/h (6 Bft) 95,74 %
17.01.2018 13:30 2,9 C 7,2 C 1,7 C 94 % 15 lf 1000,7 hPa 0,0 l/m 2 min 0 min 256 W/m 33,8 km/h (5 Bft) 91,49 %
17.01.2018 13:32 2,9 C 7,2 C 1,7 C 94 % 15 lf 1000,7 hPa 0,0 l/m 2 min 0 min 258 W/m 40,6 km/h (6 Bft) 95,74 %
17.01.2018 13:34 3,0 C 5,6 C 1,7 C 94 % 14 lf 1000,7 hPa 0,0 l/m 0 min 0 min 124 W/m 36,0 km/h (5 Bft) 95,74 %
17.01.2018 13:36 3,0 C 4,4 C 1,7 C 94 % 13 lf 1000,8 hPa 0,0 l/m 0 min 0 min 83 W/m 49,6 km/h (6 Bft) 95,74 %
17.01.2018 13:38 3,1 C 3,9 C 1,7 C 94 % 13 lf 1000,8 hPa 0,0 l/m 0 min 0 min 66 W/m 38,3 km/h (5 Bft) 95,74 %
17.01.2018 13:40 3,0 C 3,9 C 1,7 C 94 % 13 lf 1000,7 hPa 0,2 l/m 0 min 0 min 61 W/m 49,6 km/h (6 Bft) 93,48 %
17.01.2018 13:42 3,0 C 3,9 C 1,7 C 94 % 14 lf 1000,9 hPa 0,0 l/m 0 min 2 min 82 W/m 54,1 km/h (7 Bft) 93,62 %
17.01.2018 13:44 3,0 C 3,9 C 1,7 C 93 % 13 lf 1000,8 hPa 0,0 l/m 0 min 0 min 88 W/m 51,8 km/h (7 Bft) 95,74 %
17.01.2018 13:46 3,1 C 3,9 C 1,7 C 93 % 12 lf 1000,8 hPa 0,0 l/m 0 min 0 min 96 W/m 38,3 km/h (5 Bft) 97,87 %
17.01.2018 13:48 3,1 C 5,0 C 1,7 C 93 % 9 lf 1000,9 hPa 0,0 l/m 2 min 0 min 167 W/m 40,6 km/h (6 Bft) 97,87 %
17.01.2018 13:50 3,2 C 5,6 C 2,2 C 93 % 4 lf 1000,8 hPa 0,0 l/m 2 min 0 min 268 W/m 54,1 km/h (7 Bft) 94,83 %
17.01.2018 13:52 3,2 C 6,1 C 2,2 C 93 % 2 lf 1000,9 hPa 0,0 l/m 2 min 0 min 281 W/m 49,6 km/h (6 Bft) 94,29 %
17.01.2018 13:54 3,3 C 6,1 C 2,2 C 93 % 0 lf 1000,8 hPa 0,0 l/m 2 min 0 min 234 W/m 54,1 km/h (7 Bft) 97,87 %
17.01.2018 13:56 3,4 C 5,0 C 2,2 C 93 % 0 lf 1000,9 hPa 0,0 l/m 0 min 0 min 155 W/m 51,8 km/h (7 Bft) 100,00 %
17.01.2018 13:58 3,5 C 5,0 C 2,2 C 93 % 0 lf 1000,9 hPa 0,0 l/m 0 min 0 min 150 W/m 40,6 km/h (6 Bft) 97,87 %
17.01.2018 14:00 3,5 C 4,4 C 2,2 C 93 % 0 lf 1001,0 hPa 0,2 l/m 0 min 0 min 144 W/m 49,6 km/h (6 Bft) 100,00 %
17.01.2018 14:02 3,6 C 5,6 C 2,8 C 92 % 0 lf 1000,9 hPa 0,0 l/m 2 min 0 min 175 W/m 38,3 km/h (5 Bft) 97,87 %
17.01.2018 14:04 3,6 C 5,6 C 2,8 C 92 % 0 lf 1001,0 hPa 0,0 l/m 2 min 0 min 176 W/m 33,8 km/h (5 Bft) 100,00 %
17.01.2018 14:06 3,7 C 5,0 C 2,8 C 92 % 0 lf 1001,0 hPa 0,0 l/m 0 min 0 min 133 W/m 29,3 km/h (5 Bft) 100,00 %
17.01.2018 14:08 3,7 C 5,0 C 2,8 C 92 % 1 lf 1001,1 hPa 0,0 l/m 0 min 0 min 140 W/m 29,3 km/h (5 Bft) 97,87 %
17.01.2018 14:10 3,8 C 5,0 C 2,8 C 92 % 0 lf 1001,2 hPa 0,0 l/m 0 min 0 min 120 W/m 33,8 km/h (5 Bft) 97,87 %
17.01.2018 14:12 3,8 C 4,4 C 2,8 C 92 % 0 lf 1001,1 hPa 0,0 l/m 0 min 0 min 103 W/m 42,8 km/h (6 Bft) 100,00 %
17.01.2018 14:14 3,8 C 4,4 C 2,8 C 92 % 5 lf 1001,0 hPa 0,2 l/m 0 min 0 min 90 W/m 47,3 km/h (6 Bft) 100,00 %
17.01.2018 14:16 3,8 C 4,4 C 2,2 C 92 % 4 lf 1001,2 hPa 0,0 l/m 0 min 0 min 64 W/m 51,8 km/h (7 Bft) 100,00 %
17.01.2018 14:18 3,8 C 3,9 C 2,2 C 92 % 6 lf 1001,2 hPa 0,0 l/m 0 min 0 min 39 W/m 45,1 km/h (6 Bft) 97,87 %
17.01.2018 14:20 3,8 C 3,9 C 2,2 C 91 % 4 lf 1001,3 hPa 0,0 l/m 0 min 2 min 33 W/m 40,6 km/h (6 Bft) 98,31 %
17.01.2018 14:22 3,8 C 3,9 C 2,2 C 91 % 15 lf 1001,4 hPa 0,0 l/m 0 min 2 min 25 W/m 47,3 km/h (6 Bft) 97,14 %
17.01.2018 14:24 3,8 C 3,3 C 2,2 C 91 % 15 lf 1001,4 hPa 0,0 l/m 0 min 2 min 24 W/m 33,8 km/h (5 Bft) 95,74 %
17.01.2018 14:26 3,8 C 3,3 C 1,7 C 91 % 15 lf 1001,3 hPa 0,0 l/m 0 min 2 min 23 W/m 38,3 km/h (5 Bft) 97,83 %
17.01.2018 14:28 3,8 C 3,3 C 1,7 C 91 % 15 lf 1001,4 hPa 0,0 l/m 0 min 2 min 21 W/m 33,8 km/h (5 Bft) 95,74 %
17.01.2018 14:30 3,7 C 3,3 C 1,7 C 91 % 15 lf 1001,4 hPa 0,0 l/m 0 min 2 min 18 W/m 38,3 km/h (5 Bft) 97,87 %
17.01.2018 14:32 3,7 C 3,3 C 1,7 C 91 % 15 lf 1001,4 hPa 0,0 l/m 0 min 2 min 14 W/m 36,0 km/h (5 Bft) 95,74 %
17.01.2018 14:34 3,7 C 3,3 C 1,7 C 91 % 15 lf 1001,4 hPa 0,2 l/m 0 min 2 min 19 W/m 47,3 km/h (6 Bft) 97,87 %
17.01.2018 14:36 3,7 C 2,8 C 1,7 C 91 % 15 lf 1001,4 hPa 0,0 l/m 0 min 2 min 29 W/m 47,3 km/h (6 Bft) 97,83 %
17.01.2018 14:38 3,6 C 2,8 C 1,7 C 91 % 15 lf 1001,3 hPa 0,0 l/m 0 min 2 min 40 W/m 49,6 km/h (6 Bft) 93,62 %
17.01.2018 14:40 3,6 C 2,8 C 1,7 C 91 % 15 lf 1001,3 hPa 0,0 l/m 0 min 2 min 46 W/m 45,1 km/h (6 Bft) 91,49 %
17.01.2018 14:42 3,5 C 2,8 C 1,7 C 91 % 15 lf 1001,4 hPa 0,0 l/m 0 min 2 min 68 W/m 49,6 km/h (6 Bft) 95,74 %
17.01.2018 14:44 3,5 C 3,3 C 2,2 C 91 % 15 lf 1001,5 hPa 0,0 l/m 0 min 2 min 99 W/m 54,1 km/h (7 Bft) 95,74 %
17.01.2018 14:46 3,6 C 3,3 C 2,2 C 92 % 15 lf 1001,5 hPa 0,2 l/m 0 min 2 min 100 W/m 47,3 km/h (6 Bft) 93,62 %
17.01.2018 14:48 3,6 C 3,3 C 2,2 C 92 % 15 lf 1001,5 hPa 0,0 l/m 0 min 2 min 66 W/m 45,1 km/h (6 Bft) 95,74 %
17.01.2018 14:50 3,6 C 3,3 C 1,7 C 92 % 15 lf 1001,6 hPa 0,0 l/m 0 min 2 min 29 W/m 40,6 km/h (6 Bft) 93,48 %
17.01.2018 14:52 3,6 C 3,3 C 1,7 C 92 % 15 lf 1001,7 hPa 0,0 l/m 0 min 2 min 23 W/m 36,0 km/h (5 Bft) 95,74 %
17.01.2018 14:54 3,6 C 3,3 C 1,7 C 92 % 15 lf 1001,8 hPa 0,0 l/m 0 min 2 min 40 W/m 38,3 km/h (5 Bft) 95,74 %
17.01.2018 14:56 3,6 C 3,3 C 2,2 C 92 % 15 lf 1001,9 hPa 0,0 l/m 0 min 2 min 84 W/m 33,8 km/h (5 Bft) 89,36 %
17.01.2018 14:58 3,6 C 3,9 C 2,2 C 92 % 15 lf 1002,0 hPa 0,0 l/m 0 min 2 min 100 W/m 27,0 km/h (4 Bft) 93,62 %
17.01.2018 15:00 3,7 C 3,9 C 2,8 C 92 % 15 lf 1002,0 hPa 0,0 l/m 0 min 2 min 101 W/m 40,6 km/h (6 Bft) 95,74 %
17.01.2018 15:02 3,7 C 3,9 C 2,8 C 92 % 15 lf 1002,0 hPa 0,0 l/m 0 min 2 min 80 W/m 22,5 km/h (4 Bft) 95,65 %
17.01.2018 15:04 3,7 C 3,9 C 2,2 C 92 % 15 lf 1002,1 hPa 0,0 l/m 0 min 2 min 55 W/m 29,3 km/h (5 Bft) 97,87 %
17.01.2018 15:06 3,7 C 3,9 C 2,2 C 92 % 15 lf 1002,1 hPa 0,0 l/m 0 min 2 min 21 W/m 24,8 km/h (4 Bft) 97,87 %
17.01.2018 15:08 3,7 C 3,9 C 2,2 C 92 % 15 lf 1002,2 hPa 0,2 l/m 0 min 2 min 18 W/m 45,1 km/h (6 Bft) 97,87 %
17.01.2018 15:10 3,7 C 3,9 C 2,2 C 92 % 15 lf 1002,2 hPa 0,0 l/m 0 min 2 min 15 W/m 33,8 km/h (5 Bft) 97,87 %
17.01.2018 15:12 3,7 C 3,9 C 2,2 C 92 % 15 lf 1002,3 hPa 0,0 l/m 0 min 2 min 16 W/m 38,3 km/h (5 Bft) 97,83 %
17.01.2018 15:14 3,7 C 3,3 C 2,2 C 92 % 15 lf 1002,3 hPa 0,0 l/m 0 min 2 min 21 W/m 38,3 km/h (5 Bft) 95,74 %
17.01.2018 15:16 3,7 C 3,3 C 1,7 C 92 % 15 lf 1002,4 hPa 0,0 l/m 0 min 2 min 29 W/m 31,5 km/h (5 Bft) 95,74 %
17.01.2018 15:18 3,7 C 3,3 C 1,7 C 92 % 15 lf 1002,3 hPa 0,0 l/m 0 min 2 min 47 W/m 40,6 km/h (6 Bft) 97,87 %
17.01.2018 15:20 3,6 C 3,3 C 1,7 C 92 % 15 lf 1002,4 hPa 0,0 l/m 0 min 2 min 69 W/m 49,6 km/h (6 Bft) 96,55 %
17.01.2018 15:22 3,6 C 3,9 C 2,2 C 92 % 15 lf 1002,4 hPa 0,0 l/m 0 min 2 min 94 W/m 38,3 km/h (5 Bft) 97,22 %
17.01.2018 15:24 3,6 C 4,4 C 2,2 C 92 % 15 lf 1002,6 hPa 0,0 l/m 2 min 2 min 186 W/m 42,8 km/h (6 Bft) 93,48 %
17.01.2018 15:26 3,6 C 4,4 C 2,8 C 92 % 15 lf 1002,7 hPa 0,0 l/m 2 min 2 min 173 W/m 24,8 km/h (4 Bft) 95,74 %
17.01.2018 15:28 3,7 C 4,4 C 2,8 C 92 % 15 lf 1002,7 hPa 0,0 l/m 2 min 2 min 131 W/m 31,5 km/h (5 Bft) 95,74 %
17.01.2018 15:30 3,7 C 5,0 C 2,2 C 92 % 15 lf 1002,7 hPa 0,0 l/m 2 min 2 min 115 W/m 42,8 km/h (6 Bft) 97,87 %
17.01.2018 15:32 3,7 C 4,4 C 2,2 C 91 % 15 lf 1002,7 hPa 0,2 l/m 0 min 0 min 68 W/m 27,0 km/h (4 Bft) 97,87 %
17.01.2018 15:34 3,7 C 4,4 C 2,2 C 91 % 15 lf 1002,8 hPa 0,0 l/m 0 min 2 min 72 W/m 40,6 km/h (6 Bft) 97,87 %
17.01.2018 15:36 3,7 C 4,4 C 2,2 C 91 % 15 lf 1002,8 hPa 0,0 l/m 0 min 2 min 83 W/m 27,0 km/h (4 Bft) 95,65 %
17.01.2018 15:38 3,8 C 4,4 C 2,2 C 91 % 15 lf 1002,9 hPa 0,0 l/m 0 min 2 min 75 W/m 40,6 km/h (6 Bft) 97,87 %
17.01.2018 15:40 3,8 C 4,4 C 2,2 C 91 % 15 lf 1002,9 hPa 0,0 l/m 0 min 2 min 76 W/m 27,0 km/h (4 Bft) 97,87 %
17.01.2018 15:42 3,8 C 4,4 C 2,2 C 91 % 15 lf 1003,0 hPa 0,0 l/m 2 min 2 min 90 W/m 31,5 km/h (5 Bft) 97,87 %
17.01.2018 15:44 3,8 C 4,4 C 2,2 C 91 % 15 lf 1003,0 hPa 0,0 l/m 2 min 0 min 85 W/m 36,0 km/h (5 Bft) 97,87 %
17.01.2018 15:46 3,8 C 4,4 C 2,2 C 90 % 15 lf 1002,9 hPa 0,0 l/m 2 min 2 min 91 W/m 29,3 km/h (5 Bft) 97,87 %
17.01.2018 15:48 3,8 C 4,4 C 2,2 C 90 % 15 lf 1003,0 hPa 0,0 l/m 2 min 0 min 101 W/m 20,3 km/h (4 Bft) 97,83 %
17.01.2018 15:50 3,9 C 4,4 C 2,8 C 90 % 15 lf 1003,0 hPa 0,0 l/m 2 min 2 min 115 W/m 33,8 km/h (5 Bft) 98,31 %
17.01.2018 15:52 3,9 C 4,4 C 2,8 C 90 % 15 lf 1003,0 hPa 0,0 l/m 2 min 0 min 97 W/m 24,8 km/h (4 Bft) 100,00 %
17.01.2018 15:54 3,9 C 4,4 C 2,2 C 90 % 15 lf 1003,1 hPa 0,0 l/m 0 min 2 min 65 W/m 27,0 km/h (4 Bft) 100,00 %
17.01.2018 15:56 3,9 C 4,4 C 2,2 C 90 % 14 lf 1003,1 hPa 0,0 l/m 0 min 2 min 54 W/m 33,8 km/h (5 Bft) 97,87 %
17.01.2018 15:58 3,9 C 3,9 C 1,7 C 90 % 13 lf 1003,0 hPa 0,0 l/m 0 min 2 min 39 W/m 27,0 km/h (4 Bft) 100,00 %
17.01.2018 16:00 3,9 C 3,9 C 1,7 C 90 % 11 lf 1003,2 hPa 0,0 l/m 0 min 2 min 39 W/m 31,5 km/h (5 Bft) 100,00 %
17.01.2018 16:02 3,9 C 3,9 C 2,2 C 90 % 4 lf 1003,3 hPa 0,0 l/m 0 min 2 min 46 W/m 45,1 km/h (6 Bft) 95,74 %
17.01.2018 16:04 3,9 C 3,9 C 2,2 C 90 % 2 lf 1003,3 hPa 0,0 l/m 2 min 2 min 59 W/m 31,5 km/h (5 Bft) 100,00 %
17.01.2018 16:06 3,9 C 4,4 C 2,2 C 90 % 0 lf 1003,3 hPa 0,0 l/m 2 min 2 min 55 W/m 38,3 km/h (5 Bft) 95,74 %
17.01.2018 16:08 3,9 C 3,9 C 2,2 C 90 % 0 lf 1003,3 hPa 0,0 l/m 0 min 2 min 41 W/m 22,5 km/h (4 Bft) 95,74 %
17.01.2018 16:10 3,9 C 3,9 C 2,2 C 90 % 0 lf 1003,4 hPa 0,0 l/m 0 min 2 min 39 W/m 45,1 km/h (6 Bft) 100,00 %
17.01.2018 16:12 3,9 C 3,9 C 2,2 C 89 % 0 lf 1003,4 hPa 0,0 l/m 0 min 2 min 38 W/m 33,8 km/h (5 Bft) 93,62 %
17.01.2018 16:14 3,9 C 3,9 C 2,2 C 89 % 0 lf 1003,5 hPa 0,0 l/m 0 min 2 min 35 W/m 31,5 km/h (5 Bft) 100,00 %
17.01.2018 16:16 3,9 C 4,4 C 2,2 C 89 % 0 lf 1003,6 hPa 0,0 l/m 0 min 2 min 42 W/m 33,8 km/h (5 Bft) 100,00 %
17.01.2018 16:18 4,0 C 4,4 C 2,2 C 89 % 0 lf 1003,6 hPa 0,2 l/m 2 min 2 min 45 W/m 42,8 km/h (6 Bft) 100,00 %
17.01.2018 16:20 4,0 C 4,4 C 2,2 C 89 % 0 lf 1003,7 hPa 0,0 l/m 0 min 2 min 39 W/m 36,0 km/h (5 Bft) 100,00 %
17.01.2018 16:22 4,0 C 3,9 C 2,2 C 89 % 0 lf 1003,7 hPa 0,0 l/m 0 min 0 min 26 W/m 27,0 km/h (4 Bft) 100,00 %
17.01.2018 16:24 4,0 C 3,9 C 1,7 C 88 % 0 lf 1003,9 hPa 0,0 l/m 0 min 0 min 21 W/m 29,3 km/h (5 Bft) 97,14 %
17.01.2018 16:26 4,0 C 3,9 C 1,7 C 88 % 0 lf 1003,9 hPa 0,0 l/m 0 min 2 min 24 W/m 31,5 km/h (5 Bft) 97,87 %
17.01.2018 16:28 4,0 C 3,9 C 1,7 C 88 % 0 lf 1003,9 hPa 0,0 l/m 0 min 2 min 19 W/m 31,5 km/h (5 Bft) 97,87 %
17.01.2018 16:30 4,1 C 3,9 C 1,7 C 88 % 0 lf 1003,9 hPa 0,0 l/m 0 min 0 min 14 W/m 29,3 km/h (5 Bft) 95,74 %
17.01.2018 16:32 4,0 C 3,9 C 1,7 C 88 % 0 lf 1003,8 hPa 0,0 l/m 0 min 2 min 12 W/m 40,6 km/h (6 Bft) 97,87 %
17.01.2018 16:34 4,0 C 3,9 C 1,7 C 88 % 0 lf 1004,1 hPa 0,0 l/m 0 min 2 min 12 W/m 27,0 km/h (4 Bft) 95,74 %
17.01.2018 16:36 4,0 C 3,9 C 1,7 C 87 % 0 lf 1004,1 hPa 0,0 l/m 0 min 0 min 12 W/m 27,0 km/h (4 Bft) 95,65 %
17.01.2018 16:38 4,0 C 3,9 C 1,7 C 87 % 0 lf 1004,1 hPa 0,0 l/m 0 min 2 min 12 W/m 31,5 km/h (5 Bft) 97,87 %
17.01.2018 16:40 4,0 C 3,9 C 1,7 C 87 % 0 lf 1004,2 hPa 0,0 l/m 0 min 2 min 12 W/m 20,3 km/h (4 Bft) 93,62 %
17.01.2018 16:42 4,0 C 3,9 C 1,7 C 87 % 0 lf 1004,2 hPa 0,0 l/m 0 min 0 min 12 W/m 31,5 km/h (5 Bft) 97,87 %
17.01.2018 16:44 4,0 C 3,9 C 1,7 C 87 % 0 lf 1004,3 hPa 0,0 l/m 0 min 2 min 10 W/m 29,3 km/h (5 Bft) 97,87 %
17.01.2018 16:46 4,0 C 3,9 C 1,7 C 87 % 0 lf 1004,3 hPa 0,0 l/m 0 min 2 min 9 W/m 33,8 km/h (5 Bft) 97,83 %
17.01.2018 16:48 4,0 C 3,9 C 1,7 C 87 % 0 lf 1004,4 hPa 0,0 l/m 0 min 2 min 9 W/m 27,0 km/h (4 Bft) 97,87 %
17.01.2018 16:50 4,0 C 3,9 C 1,7 C 87 % 0 lf 1004,5 hPa 0,0 l/m 0 min 0 min 9 W/m 24,8 km/h (4 Bft) 98,31 %
17.01.2018 16:52 4,0 C 3,9 C 1,7 C 87 % 0 lf 1004,5 hPa 0,0 l/m 0 min 0 min 8 W/m 33,8 km/h (5 Bft) 95,74 %
17.01.2018 16:54 4,0 C 3,9 C 1,7 C 87 % 0 lf 1004,5 hPa 0,0 l/m 0 min 0 min 7 W/m 24,8 km/h (4 Bft) 94,29 %
17.01.2018 16:56 4,0 C 3,9 C 1,7 C 87 % 0 lf 1004,6 hPa 0,0 l/m 0 min 2 min 7 W/m 36,0 km/h (5 Bft) 95,74 %
17.01.2018 16:58 4,0 C 3,9 C 1,7 C 86 % 0 lf 1004,6 hPa 0,0 l/m 0 min 2 min 6 W/m 33,8 km/h (5 Bft) 89,13 %
17.01.2018 17:00 4,0 C 3,9 C 1,7 C 86 % 0 lf 1004,7 hPa 0,0 l/m 0 min 0 min 5 W/m 31,5 km/h (5 Bft) 93,62 %
17.01.2018 17:02 4,0 C 3,9 C 1,7 C 86 % 0 lf 1004,8 hPa 0,0 l/m 0 min 2 min 5 W/m 33,8 km/h (5 Bft) 93,62 %
17.01.2018 17:04 3,9 C 3,9 C 1,7 C 86 % 0 lf 1004,8 hPa 0,0 l/m 0 min 0 min 5 W/m 31,5 km/h (5 Bft) 91,49 %
17.01.2018 17:06 3,9 C 3,9 C 1,7 C 86 % 0 lf 1004,8 hPa 0,0 l/m 0 min 2 min 5 W/m 27,0 km/h (4 Bft) 95,83 %
17.01.2018 17:08 3,9 C 3,3 C 1,7 C 86 % 0 lf 1004,8 hPa 0,0 l/m 0 min 0 min 2 W/m 27,0 km/h (4 Bft) 95,74 %
17.01.2018 17:10 3,9 C 3,3 C 1,7 C 86 % 0 lf 1004,9 hPa 0,0 l/m 0 min 0 min 0 W/m 24,8 km/h (4 Bft) 91,30 %
17.01.2018 17:12 3,9 C 3,3 C 1,7 C 86 % 0 lf 1004,8 hPa 0,0 l/m 0 min 0 min 0 W/m 20,3 km/h (4 Bft) 93,62 %
17.01.2018 17:14 3,9 C 3,3 C 1,1 C 86 % 0 lf 1004,9 hPa 0,0 l/m 0 min 0 min 0 W/m 24,8 km/h (4 Bft) 89,36 %
17.01.2018 17:16 3,9 C 3,3 C 1,1 C 86 % 0 lf 1004,9 hPa 0,0 l/m 0 min 0 min 0 W/m 27,0 km/h (4 Bft) 93,62 %
17.01.2018 17:18 3,8 C 3,3 C 1,1 C 86 % 0 lf 1004,9 hPa 0,0 l/m 0 min 0 min 0 W/m 27,0 km/h (4 Bft) 93,62 %
17.01.2018 17:20 3,8 C 3,3 C 1,1 C 86 % 0 lf 1005,0 hPa 0,0 l/m 0 min 0 min 0 W/m 24,8 km/h (4 Bft) 94,83 %
17.01.2018 17:22 3,8 C 3,3 C 1,1 C 86 % 0 lf 1005,0 hPa 0,0 l/m 0 min 2 min 0 W/m 24,8 km/h (4 Bft) 91,43 %
17.01.2018 17:24 3,8 C 3,3 C 1,1 C 86 % 0 lf 1005,0 hPa 0,0 l/m 0 min 0 min 0 W/m 31,5 km/h (5 Bft) 93,62 %
17.01.2018 17:26 3,7 C 3,3 C 1,1 C 86 % 0 lf 1005,1 hPa 0,0 l/m 0 min 0 min 0 W/m 31,5 km/h (5 Bft) 93,62 %
17.01.2018 17:28 3,7 C 3,3 C 1,1 C 86 % 0 lf 1005,1 hPa 0,0 l/m 0 min 0 min 0 W/m 36,0 km/h (5 Bft) 93,62 %
17.01.2018 17:30 3,7 C 3,3 C 1,1 C 86 % 0 lf 1005,1 hPa 0,0 l/m 0 min 0 min 0 W/m 27,0 km/h (4 Bft) 89,36 %
17.01.2018 17:32 3,7 C 3,3 C 1,1 C 86 % 0 lf 1005,2 hPa 0,0 l/m 0 min 0 min 0 W/m 18,0 km/h (3 Bft) 93,62 %
17.01.2018 17:34 3,7 C 3,3 C 1,1 C 86 % 0 lf 1005,2 hPa 0,0 l/m 0 min 0 min 0 W/m 20,3 km/h (4 Bft) 93,48 %
17.01.2018 17:36 3,7 C 3,3 C 1,1 C 86 % 0 lf 1005,2 hPa 0,0 l/m 0 min 0 min 0 W/m 24,8 km/h (4 Bft) 93,62 %
17.01.2018 17:38 3,7 C 3,3 C 1,1 C 86 % 0 lf 1005,2 hPa 0,0 l/m 0 min 0 min 0 W/m 31,5 km/h (5 Bft) 93,62 %
17.01.2018 17:40 3,7 C 3,3 C 1,1 C 86 % 0 lf 1005,4 hPa 0,0 l/m 0 min 0 min 0 W/m 31,5 km/h (5 Bft) 93,62 %
17.01.2018 17:42 3,7 C 3,3 C 1,1 C 87 % 0 lf 1005,3 hPa 0,0 l/m 0 min 0 min 0 W/m 31,5 km/h (5 Bft) 93,62 %
17.01.2018 17:44 3,7 C 3,3 C 1,1 C 87 % 0 lf 1005,3 hPa 0,0 l/m 0 min 0 min 0 W/m 27,0 km/h (4 Bft) 93,62 %
17.01.2018 17:46 3,7 C 3,3 C 1,1 C 87 % 0 lf 1005,4 hPa 0,0 l/m 0 min 0 min 0 W/m 33,8 km/h (5 Bft) 97,83 %
17.01.2018 17:48 3,7 C 3,3 C 1,1 C 87 % 0 lf 1005,4 hPa 0,0 l/m 0 min 0 min 0 W/m 24,8 km/h (4 Bft) 93,62 %
17.01.2018 17:50 3,7 C 3,3 C 1,1 C 87 % 0 lf 1005,4 hPa 0,2 l/m 0 min 0 min 0 W/m 27,0 km/h (4 Bft) 96,61 %
17.01.2018 17:52 3,7 C 3,3 C 1,1 C 87 % 0 lf 1005,4 hPa 0,0 l/m 0 min 0 min 0 W/m 31,5 km/h (5 Bft) 97,14 %
17.01.2018 17:54 3,7 C 3,3 C 1,1 C 87 % 0 lf 1005,5 hPa 0,0 l/m 0 min 0 min 0 W/m 33,8 km/h (5 Bft) 97,87 %
17.01.2018 17:56 3,7 C 3,3 C 1,1 C 87 % 0 lf 1005,5 hPa 0,0 l/m 0 min 0 min 0 W/m 27,0 km/h (4 Bft) 95,65 %
17.01.2018 17:58 3,7 C 3,3 C 1,1 C 87 % 0 lf 1005,5 hPa 0,0 l/m 0 min 0 min 0 W/m 24,8 km/h (4 Bft) 97,87 %
17.01.2018 18:00 3,7 C 3,3 C 1,1 C 87 % 0 lf 1005,5 hPa 0,0 l/m 0 min 0 min 0 W/m 29,3 km/h (5 Bft) 95,74 %
17.01.2018 18:02 3,7 C 3,3 C 1,1 C 87 % 0 lf 1005,6 hPa 0,0 l/m 0 min 0 min 0 W/m 29,3 km/h (5 Bft) 97,87 %
17.01.2018 18:04 3,7 C 3,3 C 1,1 C 87 % 0 lf 1005,6 hPa 0,0 l/m 0 min 0 min 0 W/m 22,5 km/h (4 Bft) 97,87 %
17.01.2018 18:06 3,6 C 3,3 C 1,1 C 87 % 0 lf 1005,6 hPa 0,0 l/m 0 min 0 min 0 W/m 31,5 km/h (5 Bft) 95,83 %
17.01.2018 18:08 3,6 C 3,3 C 1,1 C 87 % 0 lf 1005,6 hPa 0,0 l/m 0 min 0 min 0 W/m 22,5 km/h (4 Bft) 95,65 %
17.01.2018 18:10 3,6 C 3,3 C 1,1 C 87 % 0 lf 1005,7 hPa 0,0 l/m 0 min 0 min 0 W/m 24,8 km/h (4 Bft) 97,87 %
17.01.2018 18:12 3,6 C 3,3 C 1,1 C 87 % 0 lf 1005,8 hPa 0,0 l/m 0 min 0 min 0 W/m 27,0 km/h (4 Bft) 97,87 %
17.01.2018 18:14 3,6 C 3,3 C 1,1 C 87 % 0 lf 1005,8 hPa 0,0 l/m 0 min 0 min 0 W/m 29,3 km/h (5 Bft) 97,87 %
17.01.2018 18:16 3,6 C 3,3 C 1,1 C 87 % 0 lf 1005,8 hPa 0,0 l/m 0 min 0 min 0 W/m 33,8 km/h (5 Bft) 97,87 %
17.01.2018 18:18 3,6 C 3,3 C 1,1 C 87 % 0 lf 1005,8 hPa 0,0 l/m 0 min 0 min 0 W/m 27,0 km/h (4 Bft) 97,87 %
17.01.2018 18:20 3,6 C 3,3 C 1,1 C 87 % 0 lf 1005,8 hPa 0,0 l/m 0 min 0 min 0 W/m 27,0 km/h (4 Bft) 96,55 %
17.01.2018 18:22 3,6 C 3,3 C 1,1 C 87 % 0 lf 1005,8 hPa 0,0 l/m 0 min 0 min 0 W/m 15,8 km/h (3 Bft) 100,00 %
17.01.2018 18:24 3,6 C 3,3 C 1,1 C 87 % 0 lf 1005,9 hPa 0,0 l/m 0 min 0 min 0 W/m 22,5 km/h (4 Bft) 95,74 %
17.01.2018 18:26 3,6 C 3,3 C 1,1 C 87 % 0 lf 1005,9 hPa 0,0 l/m 0 min 0 min 0 W/m 27,0 km/h (4 Bft) 97,87 %
17.01.2018 18:28 3,6 C 3,3 C 1,1 C 87 % 0 lf 1005,9 hPa 0,0 l/m 0 min 0 min 0 W/m 31,5 km/h (5 Bft) 97,87 %
17.01.2018 18:30 3,6 C 3,3 C 1,7 C 87 % 0 lf 1005,9 hPa 0,0 l/m 0 min 0 min 0 W/m 24,8 km/h (4 Bft) 97,83 %
17.01.2018 18:32 3,6 C 3,3 C 1,7 C 87 % 0 lf 1005,9 hPa 0,0 l/m 0 min 0 min 0 W/m 24,8 km/h (4 Bft) 97,87 %
17.01.2018 18:34 3,7 C 3,9 C 1,7 C 87 % 0 lf 1005,9 hPa 0,0 l/m 0 min 0 min 0 W/m 31,5 km/h (5 Bft) 100,00 %
17.01.2018 18:36 3,7 C 3,9 C 1,7 C 87 % 0 lf 1005,8 hPa 0,0 l/m 0 min 0 min 0 W/m 38,3 km/h (5 Bft) 100,00 %
17.01.2018 18:38 3,7 C 3,9 C 1,7 C 87 % 0 lf 1005,9 hPa 0,0 l/m 0 min 0 min 0 W/m 22,5 km/h (4 Bft) 100,00 %
17.01.2018 18:40 3,8 C 3,9 C 1,7 C 87 % 0 lf 1005,9 hPa 0,0 l/m 0 min 0 min 0 W/m 27,0 km/h (4 Bft) 97,87 %
17.01.2018 18:42 3,8 C 3,3 C 1,1 C 86 % 0 lf 1005,9 hPa 0,0 l/m 0 min 0 min 0 W/m 24,8 km/h (4 Bft) 100,00 %
17.01.2018 18:44 3,8 C 3,3 C 1,1 C 86 % 0 lf 1005,9 hPa 0,0 l/m 0 min 0 min 0 W/m 27,0 km/h (4 Bft) 100,00 %
17.01.2018 18:46 3,8 C 3,3 C 1,1 C 86 % 0 lf 1005,9 hPa 0,0 l/m 0 min 0 min 0 W/m 29,3 km/h (5 Bft) 97,87 %
17.01.2018 18:48 3,8 C 3,3 C 1,1 C 86 % 0 lf 1005,9 hPa 0,0 l/m 0 min 0 min 0 W/m 24,8 km/h (4 Bft) 100,00 %
17.01.2018 18:50 3,8 C 3,9 C 1,7 C 86 % 0 lf 1005,9 hPa 0,0 l/m 0 min 0 min 0 W/m 31,5 km/h (5 Bft) 98,28 %
17.01.2018 18:52 3,8 C 3,3 C 1,7 C 86 % 0 lf 1005,9 hPa 0,0 l/m 0 min 0 min 0 W/m 22,5 km/h (4 Bft) 100,00 %
17.01.2018 18:54 3,8 C 3,3 C 1,7 C 86 % 0 lf 1005,9 hPa 0,0 l/m 0 min 0 min 0 W/m 22,5 km/h (4 Bft) 100,00 %
17.01.2018 18:56 3,8 C 3,3 C 1,7 C 86 % 0 lf 1005,9 hPa 0,0 l/m 0 min 0 min 0 W/m 24,8 km/h (4 Bft) 97,87 %
17.01.2018 18:58 3,8 C 3,3 C 1,7 C 86 % 0 lf 1005,9 hPa 0,0 l/m 0 min 0 min 0 W/m 20,3 km/h (4 Bft) 97,87 %
17.01.2018 19:00 3,8 C 3,3 C 1,7 C 86 % 0 lf 1005,9 hPa 0,0 l/m 0 min 0 min 0 W/m 20,3 km/h (4 Bft) 95,74 %
17.01.2018 19:02 3,7 C 3,3 C 1,7 C 86 % 0 lf 1005,9 hPa 0,0 l/m 0 min 0 min 0 W/m 29,3 km/h (5 Bft) 97,92 %
17.01.2018 19:04 3,7 C 3,3 C 1,7 C 86 % 0 lf 1005,9 hPa 0,0 l/m 0 min 0 min 0 W/m 24,8 km/h (4 Bft) 97,87 %
17.01.2018 19:06 3,7 C 3,3 C 1,7 C 86 % 0 lf 1005,9 hPa 0,0 l/m 0 min 0 min 0 W/m 27,0 km/h (4 Bft) 97,83 %
17.01.2018 19:08 3,7 C 3,3 C 1,7 C 86 % 0 lf 1005,9 hPa 0,0 l/m 0 min 0 min 0 W/m 24,8 km/h (4 Bft) 95,74 %
17.01.2018 19:10 3,7 C 3,3 C 1,7 C 86 % 0 lf 1005,9 hPa 0,0 l/m 0 min 0 min 0 W/m 29,3 km/h (5 Bft) 97,87 %
17.01.2018 19:12 3,7 C 3,3 C 1,7 C 86 % 0 lf 1006,0 hPa 0,0 l/m 0 min 0 min 0 W/m 29,3 km/h (5 Bft) 97,87 %
17.01.2018 19:14 3,7 C 3,3 C 1,7 C 86 % 0 lf 1006,0 hPa 0,0 l/m 0 min 0 min 0 W/m 22,5 km/h (4 Bft) 97,87 %
17.01.2018 19:16 3,7 C 3,3 C 1,7 C 86 % 0 lf 1006,1 hPa 0,0 l/m 0 min 0 min 0 W/m 22,5 km/h (4 Bft) 95,74 %
17.01.2018 19:18 3,7 C 3,3 C 1,7 C 86 % 0 lf 1006,1 hPa 0,0 l/m 0 min 0 min 0 W/m 29,3 km/h (5 Bft) 97,83 %
17.01.2018 19:20 3,6 C 2,8 C 1,7 C 86 % 0 lf 1006,0 hPa 0,0 l/m 0 min 0 min 0 W/m 18,0 km/h (3 Bft) 97,87 %
17.01.2018 19:22 3,6 C 3,3 C 1,7 C 86 % 0 lf 1006,1 hPa 0,0 l/m 0 min 0 min 0 W/m 29,3 km/h (5 Bft) 97,87 %
17.01.2018 19:24 3,6 C 3,3 C 1,7 C 86 % 0 lf 1006,1 hPa 0,0 l/m 0 min 0 min 0 W/m 27,0 km/h (4 Bft) 93,62 %
17.01.2018 19:26 3,6 C 3,3 C 1,7 C 86 % 0 lf 1006,0 hPa 0,0 l/m 0 min 0 min 0 W/m 27,0 km/h (4 Bft) 93,62 %
17.01.2018 19:28 3,5 C 3,3 C 1,7 C 86 % 0 lf 1006,1 hPa 0,0 l/m 0 min 0 min 0 W/m 24,8 km/h (4 Bft) 95,65 %
17.01.2018 19:30 3,5 C 2,8 C 1,7 C 86 % 0 lf 1006,0 hPa 0,0 l/m 0 min 0 min 0 W/m 27,0 km/h (4 Bft) 97,87 %
17.01.2018 19:32 3,5 C 2,8 C 1,7 C 86 % 0 lf 1006,0 hPa 0,0 l/m 0 min 0 min 0 W/m 31,5 km/h (5 Bft) 95,74 %
17.01.2018 19:34 3,4 C 2,8 C 1,7 C 86 % 0 lf 1006,0 hPa 0,0 l/m 0 min 0 min 0 W/m 29,3 km/h (5 Bft) 97,87 %
17.01.2018 19:36 3,4 C 3,3 C 1,7 C 86 % 0 lf 1006,0 hPa 0,0 l/m 0 min 0 min 0 W/m 29,3 km/h (5 Bft) 97,87 %
17.01.2018 19:38 3,4 C 3,3 C 1,7 C 86 % 0 lf 1006,1 hPa 0,0 l/m 0 min 0 min 0 W/m 33,8 km/h (5 Bft) 97,87 %
17.01.2018 19:40 3,4 C 3,3 C 1,7 C 87 % 0 lf 1006,0 hPa 0,0 l/m 0 min 0 min 0 W/m 33,8 km/h (5 Bft) 95,65 %
17.01.2018 19:42 3,4 C 3,3 C 1,7 C 87 % 0 lf 1006,0 hPa 0,0 l/m 0 min 0 min 0 W/m 29,3 km/h (5 Bft) 97,87 %
17.01.2018 19:44 3,4 C 3,3 C 1,7 C 87 % 0 lf 1006,1 hPa 0,0 l/m 0 min 0 min 0 W/m 31,5 km/h (5 Bft) 97,87 %
17.01.2018 19:46 3,4 C 3,3 C 1,7 C 87 % 0 lf 1006,1 hPa 0,0 l/m 0 min 0 min 0 W/m 31,5 km/h (5 Bft) 95,74 %
17.01.2018 19:48 3,5 C 3,3 C 1,7 C 87 % 0 lf 1006,0 hPa 0,0 l/m 0 min 0 min 0 W/m 33,8 km/h (5 Bft) 93,62 %
17.01.2018 19:50 3,5 C 3,3 C 1,7 C 86 % 0 lf 1006,1 hPa 0,0 l/m 0 min 0 min 0 W/m 27,0 km/h (4 Bft) 97,87 %
17.01.2018 19:52 3,5 C 3,3 C 1,7 C 87 % 0 lf 1006,2 hPa 0,0 l/m 0 min 0 min 0 W/m 31,5 km/h (5 Bft) 98,08 %
17.01.2018 19:54 3,5 C 3,3 C 1,7 C 86 % 0 lf 1006,2 hPa 0,0 l/m 0 min 0 min 0 W/m 29,3 km/h (5 Bft) 97,14 %
17.01.2018 19:56 3,5 C 3,3 C 1,7 C 86 % 0 lf 1006,3 hPa 0,0 l/m 0 min 0 min 0 W/m 36,0 km/h (5 Bft) 93,62 %
17.01.2018 19:58 3,6 C 3,3 C 1,7 C 86 % 0 lf 1006,3 hPa 0,0 l/m 0 min 0 min 0 W/m 31,5 km/h (5 Bft) 97,83 %
17.01.2018 20:00 3,5 C 3,3 C 1,7 C 86 % 0 lf 1006,3 hPa 0,0 l/m 0 min 0 min 0 W/m 33,8 km/h (5 Bft) 97,87 %
17.01.2018 20:02 3,6 C 3,3 C 1,7 C 86 % 0 lf 1006,3 hPa 0,0 l/m 0 min 0 min 0 W/m 36,0 km/h (5 Bft) 97,87 %
17.01.2018 20:04 3,6 C 3,3 C 1,7 C 86 % 0 lf 1006,3 hPa 0,0 l/m 0 min 0 min 0 W/m 33,8 km/h (5 Bft) 95,74 %
17.01.2018 20:06 3,6 C 3,3 C 1,7 C 86 % 0 lf 1006,2 hPa 0,0 l/m 0 min 0 min 0 W/m 27,0 km/h (4 Bft) 97,87 %
17.01.2018 20:08 3,6 C 3,3 C 1,7 C 86 % 0 lf 1006,3 hPa 0,0 l/m 0 min 0 min 0 W/m 31,5 km/h (5 Bft) 97,87 %
17.01.2018 20:10 3,6 C 3,3 C 1,7 C 86 % 0 lf 1006,2 hPa 0,0 l/m 0 min 0 min 0 W/m 36,0 km/h (5 Bft) 100,00 %
17.01.2018 20:12 3,6 C 3,3 C 1,7 C 85 % 0 lf 1006,2 hPa 0,0 l/m 0 min 0 min 0 W/m 27,0 km/h (4 Bft) 100,00 %
17.01.2018 20:14 3,6 C 3,3 C 1,7 C 85 % 0 lf 1006,2 hPa 0,0 l/m 0 min 0 min 0 W/m 36,0 km/h (5 Bft) 100,00 %
17.01.2018 20:16 3,6 C 3,3 C 1,7 C 85 % 0 lf 1006,2 hPa 0,0 l/m 0 min 0 min 0 W/m 42,8 km/h (6 Bft) 100,00 %
17.01.2018 20:18 3,6 C 3,3 C 1,7 C 85 % 0 lf 1006,1 hPa 0,0 l/m 0 min 0 min 0 W/m 40,6 km/h (6 Bft) 100,00 %
17.01.2018 20:20 3,6 C 3,3 C 1,7 C 85 % 0 lf 1006,1 hPa 0,0 l/m 0 min 0 min 0 W/m 36,0 km/h (5 Bft) 100,00 %
17.01.2018 20:22 3,7 C 3,3 C 1,7 C 85 % 0 lf 1006,1 hPa 0,0 l/m 0 min 0 min 0 W/m 33,8 km/h (5 Bft) 97,87 %
17.01.2018 20:24 3,7 C 3,3 C 1,7 C 85 % 0 lf 1006,3 hPa 0,0 l/m 0 min 0 min 0 W/m 29,3 km/h (5 Bft) 100,00 %
17.01.2018 20:26 3,7 C 3,3 C 1,7 C 85 % 0 lf 1006,3 hPa 0,0 l/m 0 min 0 min 0 W/m 29,3 km/h (5 Bft) 97,87 %
17.01.2018 20:28 3,7 C 3,3 C 1,7 C 85 % 0 lf 1006,3 hPa 0,0 l/m 0 min 0 min 0 W/m 29,3 km/h (5 Bft) 100,00 %
17.01.2018 20:30 3,7 C 3,3 C 1,7 C 85 % 0 lf 1006,3 hPa 0,0 l/m 0 min 0 min 0 W/m 27,0 km/h (4 Bft) 100,00 %
17.01.2018 20:32 3,7 C 3,3 C 1,7 C 85 % 0 lf 1006,4 hPa 0,0 l/m 0 min 0 min 0 W/m 29,3 km/h (5 Bft) 100,00 %
17.01.2018 20:34 3,7 C 3,3 C 1,7 C 85 % 0 lf 1006,4 hPa 0,0 l/m 0 min 0 min 0 W/m 27,0 km/h (4 Bft) 97,83 %
17.01.2018 20:36 3,7 C 3,3 C 1,7 C 85 % 0 lf 1006,3 hPa 0,0 l/m 0 min 0 min 0 W/m 27,0 km/h (4 Bft) 95,74 %
17.01.2018 20:38 3,6 C 3,3 C 1,7 C 85 % 0 lf 1006,4 hPa 0,0 l/m 0 min 0 min 0 W/m 24,8 km/h (4 Bft) 100,00 %
17.01.2018 20:40 3,6 C 3,3 C 1,7 C 85 % 0 lf 1006,3 hPa 0,0 l/m 0 min 0 min 0 W/m 31,5 km/h (5 Bft) 97,87 %
17.01.2018 20:42 3,6 C 3,3 C 1,7 C 85 % 0 lf 1006,3 hPa 0,0 l/m 0 min 0 min 0 W/m 24,8 km/h (4 Bft) 97,87 %
17.01.2018 20:44 3,6 C 3,3 C 1,7 C 85 % 0 lf 1006,4 hPa 0,0 l/m 0 min 0 min 0 W/m 22,5 km/h (4 Bft) 95,74 %
17.01.2018 20:46 3,6 C 3,3 C 2,2 C 85 % 0 lf 1006,3 hPa 0,0 l/m 0 min 0 min 0 W/m 22,5 km/h (4 Bft) 93,48 %
17.01.2018 20:48 3,6 C 3,3 C 1,7 C 85 % 0 lf 1006,4 hPa 0,0 l/m 0 min 0 min 0 W/m 24,8 km/h (4 Bft) 95,74 %
17.01.2018 20:50 3,6 C 3,3 C 2,2 C 85 % 0 lf 1006,3 hPa 0,0 l/m 0 min 0 min 0 W/m 24,8 km/h (4 Bft) 94,92 %
17.01.2018 20:52 3,6 C 3,3 C 1,7 C 85 % 0 lf 1006,3 hPa 0,0 l/m 0 min 0 min 0 W/m 27,0 km/h (4 Bft) 93,62 %
17.01.2018 20:54 3,6 C 3,3 C 1,7 C 85 % 0 lf 1006,2 hPa 0,0 l/m 0 min 0 min 0 W/m 31,5 km/h (5 Bft) 91,43 %
17.01.2018 20:56 3,6 C 3,3 C 1,7 C 85 % 0 lf 1006,1 hPa 0,0 l/m 0 min 0 min 0 W/m 29,3 km/h (5 Bft) 93,48 %
17.01.2018 20:58 3,6 C 3,3 C 1,7 C 85 % 0 lf 1006,1 hPa 0,0 l/m 0 min 0 min 0 W/m 29,3 km/h (5 Bft) 93,62 %
17.01.2018 21:00 3,6 C 3,3 C 1,7 C 85 % 0 lf 1006,2 hPa 0,0 l/m 0 min 0 min 0 W/m 33,8 km/h (5 Bft) 93,62 %
17.01.2018 21:02 3,6 C 3,3 C 1,7 C 85 % 0 lf 1006,0 hPa 0,0 l/m 0 min 0 min 0 W/m 29,3 km/h (5 Bft) 91,49 %
17.01.2018 21:04 3,6 C 3,3 C 1,7 C 85 % 0 lf 1006,1 hPa 0,0 l/m 0 min 0 min 0 W/m 29,3 km/h (5 Bft) 93,62 %
17.01.2018 21:06 3,6 C 3,3 C 1,7 C 85 % 0 lf 1006,1 hPa 0,0 l/m 0 min 0 min 0 W/m 24,8 km/h (4 Bft) 89,36 %
17.01.2018 21:08 3,6 C 3,3 C 1,7 C 85 % 0 lf 1006,2 hPa 0,0 l/m 0 min 0 min 0 W/m 22,5 km/h (4 Bft) 95,65 %
17.01.2018 21:10 3,6 C 3,3 C 1,7 C 85 % 0 lf 1006,3 hPa 0,0 l/m 0 min 0 min 0 W/m 27,0 km/h (4 Bft) 89,36 %
17.01.2018 21:12 3,6 C 3,3 C 1,7 C 85 % 0 lf 1006,3 hPa 0,0 l/m 0 min 0 min 0 W/m 29,3 km/h (5 Bft) 93,62 %
17.01.2018 21:14 3,6 C 3,3 C 1,7 C 85 % 0 lf 1006,3 hPa 0,0 l/m 0 min 0 min 0 W/m 27,0 km/h (4 Bft) 93,62 %
17.01.2018 21:16 3,6 C 3,3 C 1,7 C 85 % 0 lf 1006,3 hPa 0,0 l/m 0 min 0 min 0 W/m 24,8 km/h (4 Bft) 93,75 %
17.01.2018 21:18 3,6 C 3,3 C 1,7 C 85 % 0 lf 1006,2 hPa 0,0 l/m 0 min 0 min 0 W/m 27,0 km/h (4 Bft) 91,49 %
17.01.2018 21:20 3,6 C 3,3 C 1,7 C 85 % 0 lf 1006,3 hPa 0,0 l/m 0 min 0 min 0 W/m 24,8 km/h (4 Bft) 89,66 %
17.01.2018 21:22 3,6 C 3,3 C 1,7 C 85 % 0 lf 1006,3 hPa 0,0 l/m 0 min 0 min 0 W/m 31,5 km/h (5 Bft) 93,62 %
17.01.2018 21:24 3,6 C 3,3 C 1,7 C 85 % 0 lf 1006,3 hPa 0,0 l/m 0 min 0 min 0 W/m 31,5 km/h (5 Bft) 97,14 %
17.01.2018 21:26 3,6 C 3,3 C 1,7 C 85 % 0 lf 1006,3 hPa 0,0 l/m 0 min 0 min 0 W/m 27,0 km/h (4 Bft) 95,74 %
17.01.2018 21:28 3,6 C 3,3 C 1,7 C 85 % 0 lf 1006,4 hPa 0,0 l/m 0 min 0 min 0 W/m 31,5 km/h (5 Bft) 93,62 %
17.01.2018 21:30 3,6 C 3,3 C 1,7 C 85 % 0 lf 1006,2 hPa 0,0 l/m 0 min 0 min 0 W/m 29,3 km/h (5 Bft) 91,49 %
17.01.2018 21:32 3,6 C 3,3 C 1,7 C 85 % 0 lf 1006,3 hPa 0,0 l/m 0 min 0 min 0 W/m 31,5 km/h (5 Bft) 97,83 %
17.01.2018 21:34 3,6 C 3,3 C 1,7 C 85 % 0 lf 1006,4 hPa 0,0 l/m 0 min 0 min 0 W/m 31,5 km/h (5 Bft) 95,74 %
17.01.2018 21:36 3,6 C 3,3 C 1,7 C 85 % 0 lf 1006,3 hPa 0,0 l/m 0 min 0 min 0 W/m 31,5 km/h (5 Bft) 95,74 %
17.01.2018 21:38 3,6 C 3,3 C 1,7 C 85 % 0 lf 1006,3 hPa 0,0 l/m 0 min 0 min 0 W/m 24,8 km/h (4 Bft) 95,74 %
17.01.2018 21:40 3,6 C 3,3 C 1,7 C 85 % 0 lf 1006,4 hPa 0,0 l/m 0 min 0 min 0 W/m 27,0 km/h (4 Bft) 95,74 %
17.01.2018 21:42 3,6 C 3,3 C 1,7 C 85 % 0 lf 1006,4 hPa 0,0 l/m 0 min 0 min 0 W/m 27,0 km/h (4 Bft) 97,87 %
17.01.2018 21:44 3,6 C 3,3 C 1,7 C 85 % 0 lf 1006,4 hPa 0,0 l/m 0 min 0 min 0 W/m 31,5 km/h (5 Bft) 97,83 %
17.01.2018 21:46 3,6 C 3,3 C 1,7 C 85 % 0 lf 1006,4 hPa 0,0 l/m 0 min 0 min 0 W/m 29,3 km/h (5 Bft) 91,67 %
17.01.2018 21:48 3,6 C 3,3 C 1,7 C 86 % 0 lf 1006,4 hPa 0,0 l/m 0 min 0 min 0 W/m 31,5 km/h (5 Bft) 97,87 %
17.01.2018 21:50 3,6 C 3,3 C 2,2 C 86 % 1 lf 1006,4 hPa 0,0 l/m 0 min 0 min 0 W/m 36,0 km/h (5 Bft) 96,55 %
17.01.2018 21:52 3,6 C 3,3 C 2,2 C 86 % 1 lf 1006,4 hPa 0,0 l/m 0 min 0 min 0 W/m 24,8 km/h (4 Bft) 95,74 %
17.01.2018 21:54 3,6 C 3,3 C 2,2 C 86 % 0 lf 1006,3 hPa 0,0 l/m 0 min 0 min 0 W/m 27,0 km/h (4 Bft) 97,22 %
17.01.2018 21:56 3,7 C 3,3 C 2,2 C 86 % 0 lf 1006,4 hPa 0,0 l/m 0 min 0 min 0 W/m 29,3 km/h (5 Bft) 100,00 %
17.01.2018 21:58 3,7 C 3,9 C 2,2 C 86 % 0 lf 1006,4 hPa 0,0 l/m 0 min 0 min 0 W/m 31,5 km/h (5 Bft) 100,00 %
17.01.2018 22:00 3,7 C 3,9 C 2,2 C 86 % 0 lf 1006,3 hPa 0,0 l/m 0 min 0 min 0 W/m 42,8 km/h (6 Bft) 100,00 %
17.01.2018 22:02 3,7 C 3,9 C 2,2 C 86 % 0 lf 1006,4 hPa 0,0 l/m 0 min 0 min 0 W/m 40,6 km/h (6 Bft) 97,87 %
17.01.2018 22:04 3,7 C 3,9 C 2,2 C 86 % 0 lf 1006,3 hPa 0,0 l/m 0 min 0 min 0 W/m 36,0 km/h (5 Bft) 95,74 %
17.01.2018 22:06 3,7 C 3,9 C 2,2 C 86 % 0 lf 1006,4 hPa 0,0 l/m 0 min 0 min 0 W/m 40,6 km/h (6 Bft) 97,83 %
17.01.2018 22:08 3,8 C 3,9 C 2,2 C 86 % 0 lf 1006,4 hPa 0,0 l/m 0 min 0 min 0 W/m 29,3 km/h (5 Bft) 97,87 %
17.01.2018 22:10 3,8 C 3,9 C 2,2 C 86 % 0 lf 1006,4 hPa 0,0 l/m 0 min 0 min 0 W/m 31,5 km/h (5 Bft) 97,87 %
17.01.2018 22:12 3,8 C 3,9 C 2,2 C 86 % 0 lf 1006,4 hPa 0,0 l/m 0 min 0 min 0 W/m 22,5 km/h (4 Bft) 97,87 %
17.01.2018 22:14 3,8 C 3,9 C 2,2 C 86 % 0 lf 1006,4 hPa 0,0 l/m 0 min 0 min 0 W/m 27,0 km/h (4 Bft) 95,74 %
17.01.2018 22:16 3,8 C 3,9 C 2,2 C 86 % 1 lf 1006,4 hPa 0,0 l/m 0 min 0 min 0 W/m 24,8 km/h (4 Bft) 97,87 %
17.01.2018 22:18 3,8 C 3,9 C 2,2 C 86 % 4 lf 1006,5 hPa 0,0 l/m 0 min 2 min 0 W/m 22,5 km/h (4 Bft) 97,87 %
17.01.2018 22:20 3,8 C 3,3 C 2,2 C 86 % 4 lf 1006,5 hPa 0,0 l/m 0 min 2 min 0 W/m 27,0 km/h (4 Bft) 94,92 %
17.01.2018 22:22 3,8 C 3,3 C 2,2 C 86 % 13 lf 1006,5 hPa 0,0 l/m 0 min 2 min 0 W/m 24,8 km/h (4 Bft) 97,14 %
17.01.2018 22:24 3,8 C 3,3 C 2,2 C 86 % 12 lf 1006,6 hPa 0,0 l/m 0 min 0 min 0 W/m 20,3 km/h (4 Bft) 95,65 %
17.01.2018 22:26 3,8 C 3,3 C 1,7 C 86 % 10 lf 1006,5 hPa 0,0 l/m 0 min 0 min 0 W/m 27,0 km/h (4 Bft) 95,74 %
17.01.2018 22:28 3,8 C 3,3 C 1,7 C 86 % 7 lf 1006,6 hPa 0,0 l/m 0 min 0 min 0 W/m 24,8 km/h (4 Bft) 97,87 %
17.01.2018 22:30 3,8 C 3,3 C 1,7 C 86 % 4 lf 1006,6 hPa 0,0 l/m 0 min 0 min 0 W/m 27,0 km/h (4 Bft) 97,87 %
17.01.2018 22:32 3,8 C 3,3 C 1,7 C 86 % 3 lf 1006,6 hPa 0,0 l/m 0 min 0 min 0 W/m 22,5 km/h (4 Bft) 97,87 %
17.01.2018 22:34 3,8 C 3,3 C 1,7 C 86 % 1 lf 1006,6 hPa 0,0 l/m 0 min 0 min 0 W/m 22,5 km/h (4 Bft) 95,74 %
17.01.2018 22:36 3,8 C 3,3 C 1,7 C 86 % 0 lf 1006,6 hPa 0,0 l/m 0 min 0 min 0 W/m 22,5 km/h (4 Bft) 91,49 %
17.01.2018 22:38 3,7 C 3,3 C 1,7 C 86 % 0 lf 1006,7 hPa 0,0 l/m 0 min 0 min 0 W/m 20,3 km/h (4 Bft) 95,65 %
17.01.2018 22:40 3,7 C 3,3 C 1,7 C 86 % 0 lf 1006,7 hPa 0,0 l/m 0 min 0 min 0 W/m 20,3 km/h (4 Bft) 97,87 %
17.01.2018 22:42 3,7 C 3,3 C 1,7 C 87 % 0 lf 1006,6 hPa 0,0 l/m 0 min 0 min 0 W/m 24,8 km/h (4 Bft) 95,74 %
17.01.2018 22:44 3,7 C 3,3 C 1,7 C 87 % 0 lf 1006,6 hPa 0,0 l/m 0 min 0 min 0 W/m 22,5 km/h (4 Bft) 93,62 %
17.01.2018 22:46 3,7 C 3,3 C 1,7 C 87 % 0 lf 1006,6 hPa 0,0 l/m 0 min 0 min 0 W/m 20,3 km/h (4 Bft) 97,87 %
17.01.2018 22:48 3,7 C 3,3 C 1,7 C 87 % 0 lf 1006,5 hPa 0,0 l/m 0 min 0 min 0 W/m 27,0 km/h (4 Bft) 97,83 %
17.01.2018 22:50 3,7 C 3,3 C 1,7 C 87 % 0 lf 1006,4 hPa 0,0 l/m 0 min 0 min 0 W/m 24,8 km/h (4 Bft) 98,31 %
17.01.2018 22:52 3,7 C 3,3 C 1,7 C 87 % 0 lf 1006,4 hPa 0,0 l/m 0 min 0 min 0 W/m 27,0 km/h (4 Bft) 97,87 %
17.01.2018 22:54 3,7 C 3,3 C 1,7 C 87 % 0 lf 1006,4 hPa 0,0 l/m 0 min 0 min 0 W/m 24,8 km/h (4 Bft) 97,14 %
17.01.2018 22:56 3,7 C 3,3 C 1,7 C 87 % 0 lf 1006,5 hPa 0,0 l/m 0 min 0 min 0 W/m 22,5 km/h (4 Bft) 89,36 %
17.01.2018 22:58 3,7 C 3,3 C 1,7 C 87 % 0 lf 1006,4 hPa 0,0 l/m 0 min 0 min 0 W/m 20,3 km/h (4 Bft) 97,87 %
17.01.2018 23:00 3,7 C 3,3 C 1,7 C 87 % 0 lf 1006,4 hPa 0,0 l/m 0 min 0 min 0 W/m 24,8 km/h (4 Bft) 97,83 %
17.01.2018 23:02 3,7 C 3,3 C 2,2 C 87 % 0 lf 1006,5 hPa 0,0 l/m 0 min 0 min 0 W/m 31,5 km/h (5 Bft) 93,62 %
17.01.2018 23:04 3,7 C 3,3 C 2,2 C 87 % 0 lf 1006,4 hPa 0,0 l/m 0 min 0 min 0 W/m 24,8 km/h (4 Bft) 97,87 %
17.01.2018 23:06 3,7 C 3,3 C 2,2 C 87 % 0 lf 1006,4 hPa 0,0 l/m 0 min 0 min 0 W/m 24,8 km/h (4 Bft) 97,87 %
17.01.2018 23:08 3,7 C 3,3 C 2,2 C 87 % 0 lf 1006,4 hPa 0,0 l/m 0 min 0 min 0 W/m 31,5 km/h (5 Bft) 95,74 %
17.01.2018 23:10 3,7 C 3,3 C 2,2 C 87 % 0 lf 1006,4 hPa 0,0 l/m 0 min 0 min 0 W/m 31,5 km/h (5 Bft) 97,87 %
17.01.2018 23:12 3,7 C 3,3 C 2,2 C 87 % 0 lf 1006,4 hPa 0,0 l/m 0 min 0 min 0 W/m 24,8 km/h (4 Bft) 93,48 %
17.01.2018 23:14 3,7 C 3,3 C 2,2 C 87 % 0 lf 1006,4 hPa 0,0 l/m 0 min 0 min 0 W/m 29,3 km/h (5 Bft) 95,74 %
17.01.2018 23:16 3,7 C 3,3 C 2,2 C 86 % 0 lf 1006,3 hPa 0,0 l/m 0 min 0 min 0 W/m 27,0 km/h (4 Bft) 97,87 %
17.01.2018 23:18 3,7 C 3,9 C 2,2 C 86 % 0 lf 1006,3 hPa 0,0 l/m 0 min 0 min 0 W/m 27,0 km/h (4 Bft) 100,00 %
17.01.2018 23:20 3,7 C 3,3 C 2,2 C 86 % 0 lf 1006,3 hPa 0,0 l/m 0 min 0 min 0 W/m 20,3 km/h (4 Bft) 98,28 %
17.01.2018 23:22 3,7 C 3,3 C 2,2 C 86 % 0 lf 1006,3 hPa 0,0 l/m 0 min 0 min 0 W/m 22,5 km/h (4 Bft) 100,00 %
17.01.2018 23:24 3,7 C 3,3 C 2,2 C 86 % 0 lf 1006,3 hPa 0,0 l/m 0 min 0 min 0 W/m 20,3 km/h (4 Bft) 100,00 %
17.01.2018 23:26 3,7 C 3,3 C 1,7 C 86 % 0 lf 1006,3 hPa 0,0 l/m 0 min 0 min 0 W/m 18,0 km/h (3 Bft) 100,00 %
17.01.2018 23:28 3,8 C 3,3 C 2,2 C 86 % 0 lf 1006,3 hPa 0,0 l/m 0 min 0 min 0 W/m 18,0 km/h (3 Bft) 100,00 %
17.01.2018 23:30 3,7 C 3,3 C 1,7 C 86 % 0 lf 1006,3 hPa 0,0 l/m 0 min 0 min 0 W/m 18,0 km/h (3 Bft) 100,00 %
17.01.2018 23:32 3,7 C 3,3 C 1,7 C 86 % 0 lf 1006,3 hPa 0,0 l/m 0 min 0 min 0 W/m 18,0 km/h (3 Bft) 93,62 %
17.01.2018 23:34 3,7 C 3,3 C 1,7 C 86 % 0 lf 1006,3 hPa 0,0 l/m 0 min 0 min 0 W/m 15,8 km/h (3 Bft) 97,83 %
17.01.2018 23:36 3,7 C 3,3 C 2,2 C 86 % 0 lf 1006,3 hPa 0,0 l/m 0 min 0 min 0 W/m 18,0 km/h (3 Bft) 97,87 %
17.01.2018 23:38 3,7 C 3,3 C 2,2 C 86 % 0 lf 1006,2 hPa 0,0 l/m 0 min 0 min 0 W/m 27,0 km/h (4 Bft) 95,74 %
17.01.2018 23:40 3,7 C 3,3 C 2,2 C 86 % 0 lf 1006,2 hPa 0,0 l/m 0 min 0 min 0 W/m 20,3 km/h (4 Bft) 97,87 %
17.01.2018 23:42 3,7 C 3,3 C 2,2 C 86 % 0 lf 1006,2 hPa 0,0 l/m 0 min 0 min 0 W/m 22,5 km/h (4 Bft) 95,74 %
17.01.2018 23:44 3,7 C 3,3 C 2,2 C 86 % 0 lf 1006,2 hPa 0,0 l/m 0 min 0 min 0 W/m 20,3 km/h (4 Bft) 95,74 %
17.01.2018 23:46 3,7 C 3,3 C 2,2 C 86 % 0 lf 1006,3 hPa 0,0 l/m 0 min 0 min 0 W/m 22,5 km/h (4 Bft) 97,56 %
17.01.2018 23:48 3,8 C 3,9 C 2,2 C 86 % 0 lf 1006,3 hPa 0,0 l/m 0 min 0 min 0 W/m 33,8 km/h (5 Bft) 95,74 %
17.01.2018 23:50 3,8 C 3,9 C 2,2 C 86 % 0 lf 1006,3 hPa 0,0 l/m 0 min 0 min 0 W/m 36,0 km/h (5 Bft) 98,28 %
17.01.2018 23:52 3,8 C 3,9 C 2,2 C 86 % 0 lf 1006,3 hPa 0,0 l/m 0 min 0 min 0 W/m 20,3 km/h (4 Bft) 95,74 %
17.01.2018 23:54 3,8 C 3,9 C 2,2 C 86 % 0 lf 1006,2 hPa 0,0 l/m 0 min 0 min 0 W/m 24,8 km/h (4 Bft) 97,14 %
17.01.2018 23:56 3,8 C 3,9 C 2,2 C 86 % 0 lf 1006,2 hPa 0,0 l/m 0 min 0 min 0 W/m 22,5 km/h (4 Bft) 97,87 %
17.01.2018 23:58 3,8 C 3,3 C 2,2 C 86 % 0 lf 1006,2 hPa 0,0 l/m 0 min 0 min 0 W/m 27,0 km/h (4 Bft) 93,62 %
_ Min-Zeit 05:52 05:44 03:14 20:12 00:00 02:14 - - - - 01:22 10:52
Minimum _ 0,8 C 0,0 C -1,1 C 85 % 0 lf 990,9 hPa - - - - 11,3 km/h (2 Bft) 62,75 %
_ Max-Zeit 16:30 13:30 14:02 06:10 02:00 22:38 00:40 09:46 04:05 13:10 02:52 00:00
Maximum _ 4,1 C 7,2 C 2,8 C 95 % 15 lf 1006,7 hPa 0,2 l/m 2 min 5 min 326 W/m 56,3 km/h
W (7 Bft)
100,00 %
Durchschnitt _ 2,8 C 2,7 C 1,0 C 91 % 7 lf 999,5 hPa #6,2 l/m #2:22 h #8:34 h 89 W/m 31,3 km/h (5 Bft) 96,39 %
© 2018 W. Hausmann